GEFSSE_prec_meanprecacc_024.txt.gz
Total_Precipitation_Accumulation
0.00 0.00 0.02 0.01 0.00 0.01 0.03 0.02 0.02 0.03 0.05 0.07 0.06 0.06 0.08 0.10 0.07 0.03 0.01 0.01 0.01 0.02 0.05 0.04 0.05 0.05 0.04 0.04 0.04 0.02 0.01 0.00 0.00 0.00 0.00 0.00 0.00 0.00 0.00 0.00 0.00 0.00 0.00
0.00 0.00 0.02 0.01 0.00 0.01 0.03 0.04 0.04 0.04 0.03 0.03 0.05 0.09 0.13 0.11 0.10 0.04 0.01 0.01 0.01 0.01 0.02 0.03 0.03 0.04 0.04 0.04 0.03 0.02 0.00 0.00 0.00 0.00 0.00 0.00 0.00 0.00 0.00 0.00 0.00 0.00 0.00
0.00 0.00 0.01 0.01 0.00 0.00 0.01 0.03 0.06 0.06 0.04 0.02 0.05 0.09 0.11 0.11 0.10 0.08 0.07 0.02 0.01 0.00 0.00 0.01 0.01 0.03 0.02 0.02 0.02 0.01 0.00 0.00 0.00 0.00 0.00 0.00 0.00 0.00 0.00 0.00 0.00 0.00 0.00
0.00 0.00 0.00 0.01 0.01 0.00 0.00 0.02 0.06 0.07 0.03 0.04 0.11 0.12 0.08 0.10 0.10 0.08 0.08 0.04 0.03 0.00 0.00 0.01 0.01 0.03 0.02 0.01 0.00 0.00 0.00 0.00 0.00 0.01 0.01 0.04 0.04 0.01 0.00 0.00 0.01 0.00 0.00
0.00 0.00 0.00 0.01 0.01 0.00 0.01 0.02 0.04 0.05 0.04 0.04 0.09 0.09 0.06 0.09 0.10 0.09 0.07 0.07 0.08 0.03 0.01 0.02 0.02 0.03 0.02 0.01 0.01 0.01 0.00 0.00 0.00 0.00 0.02 0.07 0.09 0.04 0.01 0.01 0.02 0.03 0.01
0.00 0.00 0.00 0.01 0.01 0.00 0.00 0.01 0.03 0.04 0.03 0.02 0.03 0.06 0.06 0.10 0.15 0.13 0.09 0.11 0.13 0.11 0.05 0.02 0.02 0.03 0.02 0.01 0.01 0.01 0.01 0.01 0.00 0.00 0.01 0.04 0.12 0.08 0.02 0.03 0.05 0.06 0.05
0.00 0.00 0.00 0.01 0.01 0.00 0.00 0.01 0.02 0.02 0.02 0.01 0.01 0.02 0.02 0.06 0.10 0.10 0.09 0.10 0.10 0.10 0.08 0.06 0.04 0.03 0.03 0.02 0.02 0.02 0.03 0.04 0.03 0.02 0.02 0.05 0.14 0.09 0.05 0.10 0.13 0.10 0.07
0.00 0.00 0.01 0.01 0.01 0.00 0.00 0.00 0.01 0.01 0.01 0.01 0.00 0.00 0.01 0.03 0.05 0.06 0.07 0.06 0.05 0.04 0.04 0.05 0.07 0.07 0.04 0.03 0.03 0.03 0.03 0.04 0.05 0.05 0.04 0.07 0.10 0.08 0.13 0.21 0.20 0.15 0.11
0.00 0.00 0.00 0.01 0.01 0.00 0.00 0.00 0.00 0.01 0.01 0.00 0.00 0.00 0.01 0.01 0.02 0.03 0.06 0.06 0.05 0.04 0.04 0.05 0.06 0.05 0.05 0.05 0.03 0.03 0.02 0.02 0.04 0.07 0.09 0.17 0.21 0.20 0.29 0.32 0.29 0.22 0.19
0.00 0.00 0.00 0.00 0.01 0.01 0.00 0.00 0.01 0.00 0.00 0.01 0.01 0.01 0.01 0.01 0.01 0.02 0.04 0.04 0.04 0.03 0.03 0.05 0.06 0.06 0.06 0.06 0.07 0.09 0.07 0.03 0.01 0.02 0.12 0.17 0.22 0.32 0.41 0.45 0.47 0.42 0.38
0.00 0.00 0.00 0.00 0.00 0.01 0.00 0.00 0.00 0.00 0.00 0.00 0.00 0.01 0.01 0.01 0.02 0.04 0.02 0.03 0.02 0.03 0.03 0.03 0.04 0.05 0.06 0.06 0.09 0.13 0.11 0.10 0.05 0.04 0.07 0.12 0.15 0.25 0.38 0.47 0.53 0.56 0.55
0.00 0.00 0.00 0.00 0.00 0.00 0.00 0.00 0.00 0.00 0.00 0.00 0.01 0.02 0.02 0.02 0.02 0.03 0.03 0.04 0.06 0.12 0.13 0.13 0.10 0.07 0.05 0.04 0.14 0.19 0.09 0.14 0.14 0.10 0.08 0.07 0.10 0.21 0.32 0.36 0.42 0.50 0.52
0.00 0.00 0.00 0.00 0.00 0.00 0.00 0.00 0.00 0.00 0.00 0.00 0.00 0.01 0.01 0.01 0.00 0.01 0.04 0.09 0.11 0.13 0.20 0.35 0.34 0.23 0.16 0.11 0.14 0.12 0.02 0.03 0.07 0.08 0.13 0.16 0.15 0.22 0.35 0.31 0.27 0.36 0.49
0.00 0.00 0.00 0.00 0.00 0.00 0.00 0.00 0.00 0.00 0.00 0.00 0.00 0.00 0.00 0.00 0.00 0.03 0.11 0.14 0.13 0.09 0.14 0.17 0.30 0.16 0.10 0.09 0.09 0.09 0.08 0.08 0.07 0.13 0.20 0.17 0.14 0.16 0.29 0.30 0.25 0.26 0.40
0.00 0.00 0.00 0.00 0.00 0.00 0.00 0.00 0.00 0.00 0.00 0.00 0.00 0.00 0.00 0.00 0.01 0.05 0.11 0.17 0.10 0.07 0.10 0.08 0.09 0.12 0.18 0.24 0.17 0.13 0.13 0.12 0.16 0.28 0.36 0.25 0.15 0.14 0.19 0.23 0.27 0.26 0.24
0.00 0.00 0.00 0.00 0.00 0.00 0.00 0.00 0.00 0.00 0.00 0.00 0.00 0.00 0.00 0.00 0.02 0.08 0.13 0.16 0.11 0.11 0.15 0.18 0.18 0.29 0.31 0.24 0.15 0.13 0.09 0.08 0.08 0.12 0.19 0.20 0.13 0.12 0.14 0.14 0.18 0.22 0.18
0.00 0.00 0.00 0.00 0.00 0.00 0.00 0.00 0.01 0.01 0.01 0.00 0.00 0.00 0.00 0.01 0.04 0.13 0.16 0.16 0.17 0.16 0.21 0.32 0.28 0.27 0.23 0.15 0.09 0.08 0.07 0.06 0.03 0.02 0.02 0.04 0.07 0.06 0.07 0.08 0.11 0.16 0.14
0.03 0.05 0.04 0.02 0.01 0.02 0.02 0.02 0.05 0.06 0.04 0.02 0.01 0.02 0.02 0.02 0.07 0.18 0.16 0.16 0.23 0.20 0.31 0.39 0.33 0.24 0.18 0.12 0.09 0.07 0.05 0.03 0.02 0.01 0.01 0.02 0.03 0.03 0.03 0.05 0.07 0.09 0.10
0.11 0.14 0.13 0.08 0.05 0.04 0.04 0.08 0.15 0.19 0.14 0.08 0.06 0.05 0.06 0.06 0.08 0.16 0.18 0.21 0.20 0.27 0.30 0.24 0.36 0.25 0.19 0.16 0.09 0.12 0.07 0.04 0.03 0.04 0.03 0.02 0.02 0.01 0.01 0.02 0.05 0.07 0.10
0.31 0.26 0.25 0.25 0.20 0.15 0.18 0.29 0.33 0.29 0.25 0.23 0.19 0.18 0.16 0.13 0.14 0.25 0.23 0.21 0.19 0.33 0.35 0.27 0.35 0.34 0.26 0.19 0.10 0.09 0.07 0.04 0.04 0.06 0.06 0.06 0.04 0.02 0.02 0.03 0.05 0.05 0.05
0.61 0.55 0.50 0.49 0.50 0.55 0.67 0.78 0.80 0.74 0.64 0.49 0.37 0.29 0.25 0.20 0.23 0.34 0.27 0.32 0.28 0.33 0.34 0.27 0.43 0.49 0.38 0.27 0.19 0.12 0.05 0.03 0.05 0.10 0.14 0.16 0.11 0.06 0.04 0.04 0.04 0.03 0.03
0.75 0.82 0.74 0.65 0.61 0.61 0.82 1.09 1.24 1.26 1.06 0.73 0.50 0.36 0.28 0.24 0.27 0.31 0.35 0.30 0.33 0.41 0.46 0.49 0.55 0.46 0.35 0.31 0.30 0.27 0.14 0.11 0.11 0.18 0.30 0.31 0.21 0.11 0.06 0.06 0.05 0.03 0.02
0.60 0.62 0.55 0.50 0.50 0.51 0.59 0.76 0.94 1.14 1.16 0.87 0.56 0.41 0.33 0.25 0.22 0.27 0.34 0.36 0.43 0.48 0.60 0.71 0.61 0.51 0.42 0.41 0.40 0.42 0.33 0.24 0.14 0.08 0.10 0.17 0.20 0.16 0.12 0.10 0.06 0.04 0.02
0.43 0.43 0.44 0.47 0.51 0.56 0.61 0.66 0.83 1.03 1.00 0.81 0.61 0.43 0.32 0.23 0.19 0.25 0.33 0.38 0.46 0.53 0.66 0.64 0.61 0.66 0.62 0.58 0.57 0.53 0.46 0.38 0.30 0.12 0.05 0.09 0.13 0.16 0.15 0.12 0.09 0.06 0.03
0.45 0.50 0.53 0.58 0.63 0.67 0.69 0.68 0.72 1.01 0.98 0.73 0.57 0.44 0.33 0.26 0.25 0.28 0.36 0.42 0.46 0.52 0.61 0.62 0.74 0.72 0.73 0.70 0.63 0.58 0.58 0.52 0.43 0.30 0.15 0.07 0.06 0.07 0.09 0.08 0.07 0.05 0.03
0.48 0.54 0.55 0.55 0.56 0.58 0.57 0.57 0.54 0.65 0.68 0.59 0.53 0.46 0.37 0.31 0.32 0.37 0.39 0.43 0.45 0.52 0.61 0.63 0.62 0.60 0.62 0.64 0.58 0.52 0.55 0.52 0.47 0.45 0.32 0.20 0.12 0.06 0.06 0.06 0.06 0.07 0.06

GEFSSE_prec_meanprecacc_030.txt.gz
Total_Precipitation_Accumulation
0.00 0.00 0.02 0.01 0.00 0.01 0.03 0.02 0.02 0.03 0.05 0.07 0.06 0.06 0.08 0.10 0.07 0.03 0.01 0.01 0.01 0.02 0.05 0.04 0.05 0.05 0.04 0.04 0.04 0.02 0.01 0.00 0.00 0.00 0.00 0.00 0.00 0.00 0.00 0.00 0.00 0.00 0.00
0.00 0.00 0.02 0.01 0.00 0.01 0.03 0.04 0.04 0.04 0.03 0.03 0.05 0.09 0.13 0.11 0.10 0.04 0.01 0.01 0.01 0.01 0.02 0.03 0.03 0.04 0.04 0.04 0.03 0.02 0.00 0.00 0.00 0.00 0.00 0.00 0.00 0.00 0.00 0.00 0.00 0.00 0.00
0.00 0.00 0.01 0.01 0.00 0.00 0.01 0.03 0.06 0.06 0.04 0.02 0.05 0.09 0.11 0.11 0.10 0.08 0.07 0.02 0.01 0.00 0.00 0.01 0.01 0.03 0.02 0.02 0.02 0.01 0.00 0.00 0.00 0.00 0.00 0.00 0.00 0.00 0.00 0.00 0.00 0.00 0.00
0.00 0.00 0.00 0.01 0.01 0.00 0.01 0.02 0.06 0.07 0.03 0.04 0.11 0.12 0.08 0.10 0.10 0.09 0.08 0.04 0.03 0.00 0.00 0.01 0.01 0.03 0.02 0.01 0.00 0.00 0.00 0.00 0.00 0.01 0.01 0.04 0.04 0.01 0.00 0.01 0.01 0.00 0.00
0.00 0.00 0.00 0.01 0.01 0.00 0.01 0.02 0.04 0.05 0.04 0.04 0.09 0.09 0.06 0.09 0.11 0.09 0.08 0.07 0.08 0.03 0.01 0.02 0.02 0.03 0.02 0.01 0.01 0.01 0.00 0.00 0.00 0.00 0.02 0.08 0.10 0.04 0.01 0.03 0.03 0.04 0.02
0.00 0.00 0.00 0.01 0.01 0.00 0.00 0.01 0.03 0.04 0.03 0.02 0.03 0.06 0.06 0.10 0.16 0.13 0.10 0.11 0.13 0.11 0.05 0.02 0.02 0.03 0.02 0.01 0.01 0.01 0.01 0.01 0.00 0.00 0.01 0.05 0.15 0.11 0.05 0.10 0.16 0.15 0.12
0.00 0.00 0.00 0.01 0.01 0.00 0.00 0.01 0.02 0.02 0.02 0.01 0.01 0.02 0.02 0.06 0.10 0.11 0.09 0.10 0.11 0.10 0.08 0.06 0.04 0.03 0.04 0.04 0.03 0.03 0.04 0.05 0.03 0.02 0.02 0.05 0.16 0.11 0.08 0.22 0.33 0.27 0.21
0.00 0.00 0.01 0.01 0.01 0.00 0.00 0.00 0.01 0.01 0.01 0.01 0.00 0.00 0.01 0.03 0.05 0.06 0.07 0.06 0.05 0.04 0.05 0.06 0.07 0.08 0.06 0.05 0.05 0.05 0.05 0.05 0.05 0.05 0.04 0.07 0.10 0.08 0.15 0.29 0.36 0.32 0.26
0.00 0.00 0.00 0.01 0.01 0.00 0.00 0.00 0.00 0.01 0.01 0.00 0.00 0.00 0.01 0.01 0.02 0.03 0.06 0.06 0.05 0.04 0.06 0.07 0.06 0.06 0.06 0.06 0.05 0.04 0.04 0.04 0.05 0.08 0.10 0.18 0.22 0.20 0.30 0.37 0.37 0.34 0.32
0.00 0.00 0.00 0.00 0.01 0.01 0.00 0.00 0.01 0.00 0.00 0.01 0.01 0.01 0.01 0.01 0.01 0.02 0.05 0.05 0.05 0.05 0.05 0.06 0.07 0.07 0.07 0.07 0.08 0.09 0.07 0.04 0.02 0.03 0.13 0.18 0.22 0.32 0.42 0.48 0.51 0.47 0.48
0.00 0.00 0.00 0.00 0.01 0.01 0.00 0.00 0.00 0.00 0.00 0.00 0.01 0.01 0.01 0.01 0.02 0.04 0.02 0.03 0.03 0.05 0.05 0.05 0.06 0.07 0.07 0.07 0.10 0.14 0.12 0.11 0.06 0.04 0.08 0.13 0.15 0.28 0.43 0.52 0.57 0.60 0.63
0.00 0.00 0.00 0.00 0.00 0.00 0.00 0.00 0.00 0.00 0.00 0.00 0.01 0.02 0.02 0.03 0.03 0.03 0.03 0.04 0.08 0.16 0.18 0.18 0.17 0.11 0.09 0.07 0.19 0.25 0.11 0.16 0.17 0.12 0.09 0.09 0.15 0.32 0.46 0.45 0.50 0.57 0.59
0.00 0.00 0.00 0.00 0.00 0.00 0.00 0.00 0.00 0.00 0.00 0.00 0.00 0.01 0.01 0.01 0.01 0.01 0.04 0.09 0.12 0.15 0.22 0.40 0.42 0.29 0.23 0.22 0.24 0.21 0.07 0.06 0.11 0.11 0.16 0.19 0.20 0.34 0.52 0.42 0.35 0.44 0.55
0.00 0.00 0.00 0.00 0.00 0.00 0.00 0.00 0.00 0.00 0.00 0.00 0.00 0.00 0.00 0.00 0.00 0.03 0.11 0.14 0.14 0.10 0.17 0.22 0.39 0.24 0.16 0.15 0.17 0.16 0.15 0.15 0.12 0.19 0.27 0.20 0.18 0.25 0.43 0.40 0.32 0.32 0.44
0.00 0.00 0.00 0.00 0.00 0.00 0.00 0.00 0.00 0.00 0.00 0.00 0.00 0.00 0.00 0.00 0.01 0.05 0.11 0.17 0.11 0.08 0.13 0.14 0.15 0.17 0.23 0.28 0.20 0.16 0.17 0.17 0.22 0.36 0.42 0.28 0.19 0.19 0.26 0.31 0.34 0.31 0.28
0.00 0.00 0.00 0.00 0.00 0.00 0.00 0.00 0.00 0.00 0.00 0.00 0.00 0.00 0.00 0.00 0.02 0.09 0.14 0.18 0.13 0.14 0.20 0.23 0.22 0.35 0.35 0.27 0.17 0.15 0.11 0.09 0.10 0.16 0.23 0.22 0.14 0.13 0.16 0.19 0.25 0.28 0.23
0.00 0.00 0.00 0.00 0.00 0.00 0.00 0.00 0.01 0.01 0.01 0.01 0.01 0.01 0.01 0.02 0.07 0.18 0.20 0.19 0.21 0.22 0.29 0.38 0.34 0.31 0.26 0.18 0.10 0.10 0.08 0.07 0.03 0.03 0.03 0.05 0.07 0.06 0.07 0.10 0.15 0.21 0.19
0.03 0.05 0.04 0.02 0.02 0.02 0.02 0.02 0.05 0.07 0.04 0.03 0.02 0.03 0.04 0.05 0.12 0.27 0.25 0.24 0.34 0.30 0.40 0.49 0.41 0.30 0.23 0.15 0.11 0.09 0.05 0.04 0.02 0.02 0.01 0.02 0.04 0.03 0.04 0.07 0.10 0.12 0.14
0.12 0.15 0.13 0.09 0.05 0.05 0.04 0.08 0.16 0.19 0.15 0.10 0.08 0.08 0.11 0.13 0.18 0.31 0.32 0.36 0.36 0.40 0.43 0.32 0.44 0.34 0.25 0.22 0.13 0.16 0.08 0.05 0.03 0.04 0.03 0.02 0.02 0.02 0.02 0.04 0.06 0.09 0.14
0.33 0.28 0.27 0.27 0.22 0.16 0.19 0.30 0.35 0.32 0.30 0.29 0.28 0.30 0.30 0.29 0.32 0.44 0.42 0.40 0.34 0.48 0.50 0.41 0.46 0.43 0.33 0.27 0.14 0.11 0.08 0.04 0.04 0.07 0.06 0.06 0.04 0.02 0.03 0.04 0.09 0.07 0.06
0.65 0.60 0.56 0.55 0.56 0.61 0.76 0.87 0.90 0.85 0.78 0.65 0.55 0.50 0.47 0.43 0.47 0.58 0.50 0.53 0.46 0.48 0.49 0.41 0.54 0.56 0.45 0.34 0.24 0.15 0.05 0.03 0.05 0.10 0.15 0.16 0.11 0.07 0.05 0.05 0.07 0.06 0.06
0.81 0.88 0.81 0.72 0.68 0.71 0.95 1.28 1.49 1.53 1.34 1.03 0.82 0.72 0.60 0.53 0.54 0.57 0.59 0.50 0.48 0.52 0.55 0.55 0.61 0.51 0.39 0.36 0.35 0.31 0.15 0.11 0.11 0.18 0.30 0.31 0.21 0.11 0.07 0.07 0.07 0.06 0.05
0.68 0.68 0.61 0.56 0.58 0.61 0.74 1.01 1.26 1.51 1.55 1.28 0.99 0.87 0.75 0.63 0.53 0.53 0.56 0.51 0.53 0.55 0.65 0.74 0.63 0.53 0.44 0.43 0.44 0.49 0.37 0.26 0.15 0.08 0.11 0.17 0.21 0.18 0.13 0.11 0.09 0.07 0.05
0.49 0.48 0.49 0.53 0.60 0.69 0.81 0.96 1.22 1.49 1.51 1.38 1.21 1.01 0.82 0.66 0.52 0.49 0.51 0.52 0.55 0.59 0.69 0.66 0.62 0.68 0.64 0.59 0.60 0.59 0.55 0.48 0.39 0.16 0.07 0.12 0.18 0.20 0.18 0.14 0.11 0.08 0.06
0.49 0.55 0.59 0.66 0.75 0.84 0.92 0.97 1.11 1.45 1.45 1.22 1.02 0.86 0.76 0.68 0.61 0.56 0.54 0.53 0.52 0.56 0.63 0.63 0.75 0.73 0.75 0.73 0.67 0.63 0.65 0.62 0.56 0.42 0.21 0.15 0.15 0.14 0.14 0.12 0.11 0.09 0.07
0.51 0.57 0.60 0.63 0.67 0.73 0.77 0.82 0.84 0.99 1.04 0.94 0.86 0.78 0.68 0.62 0.60 0.58 0.53 0.51 0.50 0.55 0.63 0.64 0.63 0.61 0.64 0.67 0.62 0.57 0.62 0.61 0.59 0.61 0.47 0.35 0.28 0.20 0.19 0.16 0.13 0.13 0.12

GEFSSE_prec_meanprecacc_036.txt.gz
Total_Precipitation_Accumulation
0.00 0.00 0.02 0.01 0.00 0.01 0.03 0.02 0.02 0.04 0.05 0.07 0.06 0.06 0.08 0.10 0.07 0.03 0.01 0.01 0.01 0.02 0.05 0.04 0.05 0.05 0.04 0.04 0.04 0.02 0.01 0.00 0.00 0.00 0.00 0.00 0.00 0.00 0.00 0.00 0.01 0.00 0.00
0.00 0.00 0.02 0.01 0.01 0.01 0.03 0.04 0.04 0.04 0.03 0.03 0.05 0.09 0.13 0.12 0.10 0.04 0.01 0.01 0.01 0.01 0.02 0.03 0.03 0.04 0.04 0.04 0.03 0.02 0.00 0.00 0.00 0.00 0.00 0.00 0.00 0.00 0.00 0.00 0.01 0.00 0.00
0.00 0.00 0.01 0.01 0.01 0.00 0.01 0.03 0.06 0.06 0.04 0.02 0.05 0.09 0.11 0.11 0.10 0.08 0.07 0.02 0.01 0.00 0.00 0.01 0.01 0.03 0.02 0.02 0.02 0.01 0.00 0.00 0.00 0.00 0.00 0.01 0.00 0.00 0.00 0.00 0.00 0.00 0.00
0.00 0.00 0.00 0.01 0.01 0.00 0.01 0.02 0.06 0.07 0.03 0.04 0.11 0.12 0.08 0.10 0.10 0.09 0.08 0.04 0.03 0.00 0.00 0.01 0.01 0.03 0.02 0.01 0.00 0.00 0.00 0.00 0.00 0.01 0.01 0.06 0.05 0.01 0.00 0.01 0.01 0.00 0.00
0.00 0.00 0.00 0.01 0.01 0.01 0.01 0.02 0.04 0.05 0.04 0.04 0.09 0.09 0.06 0.09 0.11 0.09 0.08 0.08 0.08 0.04 0.01 0.02 0.02 0.03 0.02 0.01 0.01 0.01 0.00 0.00 0.00 0.00 0.02 0.08 0.11 0.05 0.01 0.03 0.04 0.04 0.02
0.00 0.00 0.00 0.01 0.01 0.01 0.01 0.01 0.03 0.04 0.03 0.02 0.03 0.06 0.06 0.11 0.16 0.14 0.10 0.12 0.13 0.11 0.05 0.02 0.02 0.03 0.02 0.01 0.01 0.01 0.01 0.01 0.00 0.00 0.01 0.05 0.16 0.13 0.05 0.11 0.18 0.17 0.14
0.00 0.00 0.00 0.01 0.01 0.00 0.00 0.01 0.02 0.02 0.02 0.01 0.01 0.02 0.02 0.06 0.11 0.11 0.10 0.11 0.11 0.10 0.08 0.06 0.04 0.03 0.04 0.04 0.03 0.03 0.04 0.05 0.03 0.02 0.02 0.05 0.17 0.12 0.09 0.25 0.36 0.31 0.26
0.00 0.00 0.01 0.01 0.01 0.00 0.00 0.00 0.01 0.01 0.01 0.01 0.00 0.00 0.01 0.03 0.05 0.06 0.07 0.07 0.05 0.04 0.05 0.06 0.08 0.08 0.06 0.05 0.05 0.05 0.05 0.05 0.05 0.05 0.04 0.08 0.11 0.09 0.17 0.31 0.38 0.35 0.30
0.00 0.00 0.00 0.01 0.01 0.00 0.00 0.00 0.00 0.01 0.01 0.00 0.00 0.00 0.01 0.02 0.02 0.04 0.06 0.06 0.05 0.05 0.06 0.07 0.07 0.06 0.06 0.06 0.05 0.04 0.04 0.04 0.05 0.08 0.10 0.18 0.22 0.21 0.32 0.38 0.38 0.35 0.34
0.00 0.00 0.00 0.00 0.01 0.01 0.00 0.00 0.01 0.00 0.00 0.01 0.01 0.01 0.01 0.01 0.01 0.02 0.05 0.05 0.05 0.05 0.05 0.06 0.07 0.07 0.07 0.07 0.08 0.09 0.07 0.04 0.02 0.03 0.13 0.18 0.22 0.33 0.44 0.48 0.52 0.48 0.49
0.00 0.00 0.00 0.00 0.01 0.01 0.00 0.00 0.00 0.00 0.00 0.00 0.01 0.01 0.01 0.01 0.02 0.05 0.02 0.03 0.04 0.05 0.05 0.05 0.07 0.07 0.07 0.07 0.12 0.17 0.13 0.11 0.06 0.04 0.08 0.13 0.15 0.29 0.44 0.52 0.58 0.61 0.64
0.00 0.00 0.00 0.00 0.00 0.00 0.00 0.00 0.00 0.00 0.00 0.00 0.01 0.03 0.03 0.04 0.05 0.04 0.03 0.05 0.08 0.16 0.18 0.19 0.18 0.11 0.11 0.09 0.32 0.45 0.14 0.17 0.17 0.12 0.10 0.09 0.15 0.32 0.47 0.46 0.50 0.58 0.60
0.00 0.00 0.00 0.00 0.00 0.00 0.00 0.00 0.00 0.00 0.01 0.00 0.00 0.02 0.03 0.03 0.01 0.02 0.04 0.09 0.12 0.15 0.22 0.41 0.47 0.32 0.30 0.30 0.31 0.32 0.09 0.07 0.13 0.11 0.16 0.19 0.20 0.35 0.52 0.43 0.36 0.45 0.57
0.00 0.00 0.00 0.00 0.00 0.00 0.00 0.00 0.00 0.00 0.00 0.00 0.00 0.00 0.01 0.01 0.01 0.03 0.11 0.14 0.14 0.11 0.18 0.24 0.45 0.27 0.18 0.17 0.19 0.18 0.16 0.16 0.13 0.19 0.29 0.20 0.18 0.25 0.44 0.40 0.32 0.32 0.45
0.00 0.00 0.00 0.00 0.00 0.00 0.00 0.00 0.00 0.00 0.00 0.00 0.00 0.00 0.01 0.01 0.02 0.06 0.11 0.18 0.11 0.09 0.14 0.17 0.16 0.19 0.25 0.29 0.21 0.17 0.18 0.17 0.23 0.37 0.43 0.28 0.19 0.19 0.26 0.31 0.35 0.32 0.29
0.00 0.00 0.00 0.00 0.00 0.00 0.00 0.00 0.00 0.00 0.00 0.00 0.00 0.00 0.00 0.01 0.04 0.11 0.16 0.21 0.14 0.16 0.22 0.27 0.24 0.39 0.39 0.30 0.18 0.15 0.11 0.09 0.10 0.16 0.23 0.23 0.14 0.14 0.17 0.19 0.25 0.29 0.24
0.00 0.00 0.00 0.00 0.00 0.00 0.00 0.00 0.01 0.01 0.01 0.01 0.01 0.01 0.01 0.03 0.10 0.22 0.25 0.25 0.27 0.27 0.35 0.43 0.39 0.37 0.32 0.22 0.13 0.11 0.09 0.07 0.04 0.03 0.03 0.05 0.07 0.06 0.08 0.11 0.17 0.23 0.20
0.03 0.05 0.04 0.02 0.02 0.02 0.02 0.02 0.05 0.07 0.05 0.03 0.03 0.03 0.06 0.08 0.18 0.39 0.36 0.34 0.47 0.40 0.50 0.65 0.55 0.44 0.38 0.26 0.18 0.11 0.06 0.04 0.02 0.02 0.01 0.02 0.04 0.03 0.04 0.08 0.12 0.14 0.16
0.12 0.15 0.13 0.09 0.05 0.05 0.04 0.08 0.16 0.20 0.17 0.11 0.10 0.13 0.17 0.20 0.28 0.48 0.48 0.55 0.54 0.59 0.63 0.48 0.64 0.59 0.49 0.42 0.24 0.20 0.10 0.06 0.04 0.04 0.03 0.02 0.02 0.02 0.02 0.05 0.06 0.10 0.16
0.34 0.29 0.28 0.27 0.24 0.18 0.21 0.32 0.36 0.33 0.31 0.32 0.34 0.38 0.39 0.43 0.48 0.64 0.62 0.61 0.58 0.73 0.74 0.63 0.68 0.65 0.53 0.45 0.25 0.15 0.10 0.05 0.05 0.07 0.06 0.06 0.04 0.02 0.03 0.05 0.11 0.10 0.09
0.67 0.62 0.59 0.61 0.65 0.70 0.85 0.95 0.98 0.92 0.85 0.72 0.62 0.58 0.59 0.57 0.65 0.79 0.72 0.79 0.69 0.71 0.71 0.63 0.77 0.78 0.65 0.57 0.40 0.22 0.08 0.04 0.06 0.10 0.15 0.16 0.11 0.07 0.05 0.06 0.09 0.10 0.12
0.82 0.91 0.87 0.81 0.82 0.85 1.11 1.46 1.65 1.71 1.51 1.17 0.96 0.86 0.77 0.72 0.75 0.78 0.81 0.72 0.69 0.71 0.73 0.74 0.81 0.70 0.57 0.55 0.53 0.44 0.22 0.13 0.12 0.18 0.30 0.31 0.21 0.11 0.07 0.07 0.09 0.11 0.11
0.70 0.71 0.66 0.65 0.72 0.78 0.95 1.23 1.44 1.70 1.70 1.45 1.17 1.04 0.95 0.86 0.77 0.76 0.76 0.71 0.71 0.72 0.80 0.88 0.77 0.68 0.58 0.57 0.59 0.64 0.49 0.32 0.18 0.08 0.11 0.18 0.22 0.19 0.14 0.12 0.10 0.11 0.11
0.50 0.50 0.52 0.60 0.71 0.83 0.97 1.16 1.41 1.67 1.66 1.57 1.46 1.26 1.07 0.90 0.76 0.71 0.68 0.66 0.68 0.70 0.81 0.77 0.75 0.83 0.80 0.73 0.74 0.75 0.70 0.60 0.47 0.18 0.07 0.13 0.21 0.24 0.22 0.17 0.13 0.12 0.11
0.50 0.55 0.60 0.69 0.81 0.92 1.02 1.11 1.27 1.63 1.63 1.46 1.31 1.15 1.02 0.88 0.79 0.74 0.69 0.66 0.64 0.66 0.74 0.75 0.87 0.87 0.88 0.86 0.81 0.77 0.79 0.77 0.70 0.52 0.24 0.18 0.20 0.20 0.21 0.18 0.18 0.17 0.18
0.51 0.57 0.61 0.64 0.71 0.78 0.83 0.90 0.94 1.10 1.18 1.11 1.04 0.95 0.86 0.77 0.72 0.71 0.67 0.62 0.61 0.64 0.73 0.74 0.74 0.74 0.76 0.80 0.74 0.68 0.72 0.71 0.71 0.72 0.53 0.41 0.34 0.29 0.31 0.29 0.27 0.29 0.27

GEFSSE_prec_meanprecacc_042.txt.gz
Total_Precipitation_Accumulation
0.00 0.00 0.02 0.01 0.00 0.01 0.03 0.02 0.02 0.04 0.05 0.07 0.06 0.06 0.08 0.10 0.07 0.03 0.01 0.01 0.01 0.02 0.05 0.04 0.05 0.05 0.04 0.04 0.04 0.02 0.01 0.00 0.00 0.00 0.00 0.00 0.00 0.00 0.00 0.00 0.01 0.00 0.00
0.00 0.00 0.02 0.01 0.01 0.01 0.03 0.04 0.04 0.04 0.03 0.03 0.05 0.09 0.13 0.12 0.10 0.04 0.01 0.01 0.01 0.01 0.02 0.03 0.03 0.04 0.04 0.04 0.03 0.02 0.00 0.00 0.00 0.00 0.00 0.00 0.00 0.00 0.00 0.00 0.01 0.00 0.00
0.00 0.00 0.01 0.01 0.01 0.00 0.01 0.03 0.06 0.06 0.04 0.02 0.05 0.09 0.11 0.11 0.10 0.08 0.07 0.02 0.01 0.00 0.00 0.01 0.01 0.03 0.02 0.02 0.02 0.01 0.00 0.00 0.00 0.00 0.00 0.01 0.01 0.00 0.00 0.00 0.00 0.00 0.00
0.00 0.00 0.00 0.01 0.01 0.00 0.01 0.02 0.06 0.07 0.03 0.04 0.11 0.12 0.08 0.10 0.10 0.09 0.08 0.04 0.03 0.00 0.00 0.01 0.01 0.03 0.02 0.01 0.00 0.00 0.00 0.00 0.00 0.01 0.01 0.06 0.06 0.01 0.00 0.01 0.01 0.00 0.00
0.00 0.00 0.00 0.01 0.01 0.01 0.01 0.02 0.04 0.05 0.04 0.04 0.09 0.09 0.06 0.09 0.11 0.09 0.08 0.08 0.08 0.04 0.01 0.02 0.02 0.03 0.02 0.01 0.01 0.01 0.00 0.00 0.00 0.00 0.02 0.09 0.12 0.06 0.02 0.03 0.04 0.04 0.02
0.00 0.00 0.00 0.01 0.01 0.01 0.01 0.01 0.03 0.04 0.03 0.02 0.03 0.06 0.06 0.11 0.16 0.14 0.10 0.12 0.13 0.11 0.05 0.02 0.02 0.03 0.02 0.01 0.01 0.01 0.01 0.01 0.00 0.00 0.01 0.06 0.18 0.15 0.08 0.14 0.19 0.17 0.14
0.00 0.00 0.00 0.01 0.01 0.00 0.00 0.01 0.02 0.03 0.02 0.01 0.01 0.02 0.02 0.06 0.11 0.11 0.10 0.11 0.11 0.10 0.08 0.06 0.04 0.03 0.04 0.04 0.03 0.03 0.04 0.05 0.03 0.02 0.02 0.06 0.18 0.14 0.13 0.28 0.38 0.33 0.26
0.00 0.00 0.01 0.01 0.01 0.00 0.00 0.00 0.01 0.01 0.01 0.01 0.00 0.00 0.01 0.03 0.05 0.06 0.07 0.07 0.05 0.04 0.05 0.06 0.08 0.08 0.06 0.05 0.05 0.05 0.05 0.05 0.05 0.05 0.04 0.08 0.11 0.10 0.20 0.34 0.41 0.37 0.31
0.00 0.00 0.00 0.01 0.01 0.00 0.00 0.00 0.00 0.01 0.01 0.00 0.00 0.00 0.01 0.02 0.02 0.04 0.06 0.06 0.05 0.05 0.06 0.07 0.07 0.06 0.06 0.06 0.05 0.04 0.04 0.04 0.05 0.08 0.10 0.18 0.23 0.22 0.37 0.43 0.41 0.38 0.36
0.00 0.00 0.00 0.00 0.01 0.01 0.00 0.00 0.01 0.01 0.00 0.01 0.01 0.01 0.01 0.01 0.01 0.02 0.05 0.05 0.05 0.05 0.05 0.06 0.07 0.07 0.07 0.07 0.08 0.10 0.07 0.04 0.02 0.03 0.13 0.18 0.23 0.35 0.50 0.54 0.55 0.51 0.51
0.00 0.00 0.00 0.00 0.01 0.01 0.00 0.00 0.00 0.00 0.00 0.00 0.01 0.01 0.01 0.01 0.02 0.05 0.02 0.03 0.04 0.05 0.05 0.05 0.07 0.07 0.08 0.07 0.12 0.19 0.14 0.11 0.06 0.04 0.08 0.13 0.16 0.32 0.51 0.59 0.63 0.65 0.66
0.00 0.00 0.00 0.00 0.00 0.00 0.00 0.00 0.00 0.00 0.00 0.00 0.01 0.03 0.03 0.04 0.05 0.04 0.03 0.05 0.08 0.16 0.18 0.19 0.18 0.12 0.11 0.09 0.32 0.48 0.15 0.17 0.18 0.13 0.11 0.10 0.16 0.36 0.52 0.51 0.54 0.61 0.63
0.00 0.00 0.00 0.00 0.00 0.00 0.00 0.00 0.00 0.00 0.01 0.00 0.00 0.02 0.03 0.03 0.01 0.02 0.04 0.09 0.12 0.15 0.22 0.41 0.47 0.32 0.30 0.30 0.31 0.32 0.09 0.07 0.13 0.13 0.17 0.20 0.21 0.37 0.56 0.45 0.38 0.48 0.59
0.00 0.00 0.00 0.00 0.00 0.00 0.00 0.00 0.00 0.00 0.00 0.00 0.00 0.00 0.01 0.01 0.01 0.04 0.12 0.15 0.14 0.11 0.18 0.25 0.45 0.27 0.19 0.18 0.19 0.19 0.17 0.17 0.14 0.20 0.29 0.21 0.18 0.26 0.46 0.42 0.34 0.34 0.47
0.00 0.00 0.00 0.00 0.00 0.00 0.00 0.00 0.00 0.00 0.00 0.00 0.00 0.00 0.01 0.01 0.02 0.06 0.11 0.18 0.12 0.09 0.15 0.18 0.17 0.21 0.27 0.31 0.23 0.19 0.20 0.19 0.25 0.38 0.44 0.29 0.19 0.20 0.28 0.35 0.37 0.34 0.32
0.01 0.01 0.00 0.00 0.00 0.00 0.00 0.00 0.00 0.00 0.00 0.00 0.00 0.00 0.00 0.01 0.04 0.11 0.17 0.21 0.15 0.17 0.23 0.28 0.27 0.43 0.43 0.34 0.22 0.18 0.15 0.13 0.14 0.21 0.28 0.26 0.16 0.15 0.18 0.21 0.28 0.33 0.29
0.03 0.05 0.05 0.03 0.02 0.01 0.01 0.01 0.01 0.02 0.02 0.01 0.01 0.02 0.02 0.04 0.10 0.23 0.26 0.25 0.28 0.28 0.37 0.46 0.43 0.42 0.36 0.28 0.19 0.17 0.16 0.13 0.11 0.13 0.13 0.13 0.10 0.08 0.09 0.12 0.20 0.28 0.27
0.07 0.10 0.08 0.06 0.05 0.05 0.05 0.05 0.07 0.08 0.07 0.05 0.05 0.06 0.08 0.10 0.21 0.42 0.39 0.36 0.48 0.42 0.53 0.70 0.60 0.50 0.44 0.34 0.24 0.18 0.12 0.10 0.07 0.08 0.06 0.06 0.08 0.05 0.06 0.10 0.16 0.18 0.21
0.20 0.22 0.21 0.19 0.19 0.20 0.19 0.23 0.28 0.26 0.20 0.15 0.14 0.17 0.23 0.26 0.35 0.55 0.54 0.60 0.59 0.66 0.70 0.56 0.71 0.67 0.57 0.51 0.32 0.26 0.15 0.10 0.08 0.10 0.08 0.06 0.05 0.05 0.05 0.06 0.08 0.12 0.23
0.49 0.45 0.49 0.51 0.47 0.42 0.42 0.50 0.50 0.43 0.40 0.40 0.40 0.43 0.47 0.54 0.62 0.81 0.78 0.76 0.74 0.87 0.84 0.73 0.78 0.75 0.62 0.56 0.35 0.21 0.14 0.08 0.08 0.10 0.10 0.09 0.06 0.04 0.05 0.08 0.15 0.13 0.16
0.80 0.78 0.82 0.89 1.02 1.09 1.15 1.18 1.17 1.08 1.01 0.86 0.73 0.68 0.68 0.69 0.80 1.00 0.94 1.02 0.92 0.90 0.86 0.78 0.91 0.90 0.75 0.68 0.50 0.29 0.12 0.06 0.07 0.11 0.18 0.19 0.15 0.12 0.12 0.12 0.14 0.14 0.19
0.89 1.02 1.03 1.00 1.05 1.11 1.36 1.68 1.87 1.91 1.67 1.33 1.13 1.03 0.92 0.90 0.99 1.08 1.11 0.99 0.95 0.95 0.92 0.91 0.96 0.83 0.67 0.69 0.67 0.57 0.30 0.18 0.15 0.20 0.34 0.38 0.31 0.26 0.23 0.19 0.16 0.17 0.20
0.73 0.77 0.76 0.76 0.84 0.92 1.10 1.41 1.64 1.91 1.85 1.61 1.37 1.26 1.17 1.12 1.08 1.11 1.12 1.05 0.99 0.95 1.00 1.07 0.95 0.81 0.69 0.68 0.73 0.81 0.62 0.41 0.24 0.11 0.15 0.24 0.29 0.27 0.23 0.21 0.17 0.16 0.19
0.52 0.53 0.57 0.65 0.76 0.89 1.04 1.27 1.55 1.82 1.79 1.73 1.67 1.46 1.27 1.11 1.01 0.98 0.99 0.98 0.96 0.95 1.02 0.95 0.91 0.96 0.92 0.83 0.86 0.88 0.82 0.74 0.60 0.25 0.10 0.16 0.24 0.28 0.26 0.22 0.18 0.16 0.18
0.50 0.56 0.62 0.70 0.83 0.95 1.06 1.17 1.34 1.72 1.73 1.58 1.46 1.31 1.19 1.06 0.98 0.95 0.93 0.89 0.85 0.85 0.90 0.90 1.02 0.99 1.00 0.96 0.91 0.88 0.92 0.92 0.85 0.63 0.29 0.22 0.22 0.23 0.25 0.24 0.22 0.21 0.24
0.51 0.57 0.61 0.64 0.71 0.78 0.84 0.92 0.98 1.16 1.24 1.17 1.11 1.05 0.97 0.88 0.84 0.86 0.84 0.80 0.76 0.78 0.86 0.87 0.87 0.86 0.87 0.90 0.84 0.81 0.85 0.84 0.85 0.86 0.62 0.47 0.38 0.31 0.33 0.33 0.31 0.33 0.32

GEFSSE_prec_meanprecacc_048.txt.gz
Total_Precipitation_Accumulation
0.00 0.00 0.02 0.01 0.00 0.01 0.03 0.02 0.02 0.04 0.05 0.07 0.06 0.06 0.08 0.10 0.07 0.03 0.01 0.01 0.01 0.02 0.05 0.04 0.05 0.05 0.05 0.04 0.04 0.02 0.01 0.00 0.00 0.00 0.00 0.00 0.00 0.00 0.00 0.00 0.01 0.00 0.00
0.00 0.00 0.02 0.01 0.01 0.01 0.03 0.04 0.04 0.04 0.03 0.03 0.05 0.09 0.13 0.12 0.10 0.04 0.01 0.01 0.01 0.01 0.02 0.03 0.03 0.04 0.04 0.04 0.03 0.02 0.00 0.00 0.00 0.00 0.00 0.00 0.00 0.00 0.00 0.00 0.01 0.00 0.00
0.00 0.00 0.01 0.01 0.01 0.00 0.01 0.03 0.06 0.06 0.04 0.02 0.05 0.09 0.11 0.11 0.10 0.08 0.07 0.02 0.01 0.00 0.00 0.01 0.01 0.03 0.02 0.02 0.02 0.01 0.00 0.00 0.00 0.00 0.00 0.01 0.01 0.00 0.01 0.00 0.00 0.00 0.00
0.00 0.00 0.00 0.01 0.01 0.00 0.01 0.02 0.06 0.07 0.03 0.04 0.11 0.12 0.08 0.10 0.10 0.09 0.08 0.04 0.03 0.00 0.00 0.01 0.01 0.03 0.02 0.01 0.00 0.00 0.00 0.00 0.00 0.01 0.01 0.06 0.06 0.01 0.01 0.02 0.02 0.01 0.01
0.00 0.00 0.00 0.01 0.01 0.01 0.01 0.02 0.04 0.05 0.04 0.04 0.09 0.09 0.06 0.09 0.11 0.09 0.08 0.08 0.08 0.04 0.01 0.02 0.02 0.03 0.02 0.01 0.01 0.01 0.00 0.00 0.00 0.00 0.02 0.09 0.13 0.06 0.03 0.06 0.07 0.07 0.05
0.00 0.00 0.00 0.01 0.01 0.01 0.01 0.01 0.03 0.04 0.03 0.02 0.03 0.06 0.06 0.11 0.16 0.14 0.10 0.12 0.13 0.11 0.05 0.02 0.02 0.03 0.02 0.01 0.01 0.01 0.01 0.01 0.00 0.00 0.01 0.06 0.18 0.16 0.09 0.17 0.24 0.22 0.18
0.00 0.00 0.00 0.01 0.01 0.00 0.00 0.01 0.02 0.03 0.02 0.01 0.01 0.02 0.02 0.06 0.11 0.11 0.10 0.11 0.11 0.10 0.08 0.06 0.04 0.03 0.04 0.04 0.03 0.03 0.04 0.05 0.03 0.02 0.02 0.06 0.18 0.14 0.13 0.31 0.44 0.38 0.31
0.00 0.00 0.01 0.01 0.01 0.01 0.00 0.00 0.01 0.01 0.01 0.01 0.00 0.01 0.01 0.03 0.05 0.07 0.08 0.07 0.05 0.04 0.05 0.06 0.08 0.08 0.06 0.05 0.05 0.05 0.05 0.05 0.05 0.05 0.04 0.08 0.11 0.10 0.21 0.37 0.48 0.45 0.38
0.00 0.00 0.01 0.01 0.01 0.01 0.00 0.00 0.00 0.01 0.01 0.01 0.00 0.01 0.01 0.02 0.03 0.04 0.06 0.06 0.05 0.05 0.06 0.07 0.07 0.06 0.06 0.06 0.05 0.04 0.04 0.04 0.05 0.08 0.10 0.18 0.23 0.23 0.38 0.46 0.48 0.46 0.43
0.00 0.00 0.00 0.00 0.01 0.01 0.01 0.00 0.01 0.01 0.01 0.01 0.01 0.01 0.01 0.01 0.01 0.02 0.05 0.05 0.05 0.05 0.05 0.06 0.07 0.07 0.07 0.07 0.08 0.10 0.08 0.04 0.02 0.03 0.13 0.18 0.23 0.35 0.51 0.57 0.62 0.60 0.59
0.00 0.00 0.00 0.00 0.01 0.01 0.00 0.00 0.00 0.00 0.00 0.00 0.01 0.01 0.01 0.01 0.02 0.05 0.02 0.04 0.04 0.05 0.06 0.06 0.07 0.07 0.08 0.07 0.13 0.20 0.15 0.11 0.07 0.04 0.08 0.13 0.17 0.34 0.54 0.63 0.69 0.73 0.75
0.00 0.00 0.00 0.00 0.00 0.00 0.00 0.00 0.00 0.00 0.00 0.00 0.01 0.03 0.03 0.04 0.05 0.04 0.03 0.05 0.09 0.18 0.19 0.20 0.20 0.13 0.12 0.09 0.33 0.49 0.15 0.18 0.18 0.13 0.11 0.10 0.18 0.40 0.58 0.57 0.60 0.69 0.72
0.00 0.00 0.00 0.00 0.00 0.00 0.00 0.00 0.00 0.00 0.01 0.00 0.00 0.02 0.03 0.03 0.02 0.02 0.04 0.09 0.12 0.17 0.24 0.43 0.49 0.33 0.31 0.30 0.32 0.32 0.09 0.08 0.14 0.14 0.19 0.21 0.24 0.44 0.68 0.56 0.47 0.57 0.68
0.00 0.00 0.00 0.00 0.00 0.00 0.00 0.00 0.00 0.00 0.00 0.00 0.00 0.00 0.01 0.01 0.01 0.04 0.12 0.15 0.15 0.12 0.20 0.26 0.46 0.29 0.20 0.20 0.22 0.20 0.18 0.18 0.15 0.22 0.32 0.22 0.20 0.31 0.55 0.53 0.43 0.43 0.55
0.00 0.00 0.00 0.00 0.01 0.01 0.01 0.01 0.01 0.00 0.00 0.00 0.00 0.01 0.01 0.02 0.02 0.06 0.11 0.19 0.13 0.10 0.17 0.20 0.20 0.25 0.31 0.37 0.27 0.21 0.23 0.23 0.28 0.42 0.47 0.31 0.20 0.22 0.32 0.43 0.45 0.42 0.39
0.01 0.02 0.01 0.02 0.03 0.04 0.04 0.03 0.04 0.04 0.03 0.03 0.02 0.03 0.03 0.03 0.07 0.14 0.19 0.24 0.16 0.19 0.27 0.34 0.35 0.52 0.50 0.41 0.28 0.25 0.23 0.21 0.20 0.26 0.33 0.31 0.18 0.17 0.21 0.27 0.37 0.41 0.37
0.04 0.06 0.07 0.08 0.10 0.10 0.11 0.12 0.11 0.12 0.11 0.08 0.07 0.09 0.09 0.11 0.19 0.32 0.33 0.33 0.36 0.39 0.48 0.59 0.56 0.55 0.48 0.39 0.31 0.32 0.29 0.25 0.20 0.20 0.21 0.19 0.15 0.10 0.10 0.15 0.26 0.36 0.37
0.08 0.12 0.11 0.14 0.18 0.22 0.25 0.28 0.30 0.31 0.26 0.20 0.20 0.20 0.21 0.23 0.35 0.57 0.54 0.52 0.69 0.65 0.77 0.95 0.85 0.74 0.62 0.50 0.38 0.34 0.28 0.23 0.18 0.16 0.13 0.12 0.13 0.09 0.08 0.12 0.18 0.22 0.30
0.23 0.27 0.26 0.28 0.34 0.43 0.49 0.53 0.59 0.60 0.50 0.38 0.34 0.35 0.39 0.42 0.53 0.76 0.75 0.82 0.89 1.02 1.07 0.92 1.05 0.96 0.81 0.71 0.51 0.43 0.30 0.23 0.18 0.16 0.13 0.10 0.09 0.08 0.06 0.07 0.08 0.14 0.29
0.56 0.52 0.56 0.61 0.60 0.59 0.65 0.75 0.75 0.69 0.64 0.62 0.60 0.61 0.63 0.71 0.84 1.10 1.05 1.03 1.11 1.27 1.22 1.12 1.17 1.10 0.91 0.82 0.59 0.35 0.25 0.18 0.14 0.15 0.13 0.12 0.08 0.07 0.08 0.11 0.17 0.15 0.18
0.84 0.83 0.88 0.98 1.13 1.25 1.36 1.41 1.39 1.25 1.16 0.99 0.89 0.83 0.83 0.85 0.99 1.24 1.17 1.29 1.27 1.27 1.25 1.21 1.35 1.29 1.06 0.99 0.73 0.41 0.19 0.11 0.10 0.14 0.20 0.21 0.17 0.15 0.16 0.16 0.17 0.17 0.21
0.91 1.04 1.07 1.06 1.16 1.24 1.50 1.82 2.00 2.03 1.76 1.40 1.25 1.18 1.08 1.07 1.15 1.25 1.30 1.22 1.24 1.29 1.29 1.30 1.37 1.19 0.97 0.99 0.93 0.74 0.38 0.22 0.18 0.22 0.36 0.40 0.33 0.28 0.26 0.22 0.20 0.21 0.23
0.74 0.79 0.78 0.81 0.91 0.98 1.15 1.46 1.70 1.97 1.89 1.66 1.45 1.36 1.28 1.25 1.23 1.28 1.31 1.28 1.27 1.28 1.29 1.37 1.32 1.18 1.01 0.97 1.00 1.04 0.77 0.49 0.29 0.15 0.18 0.27 0.33 0.31 0.27 0.24 0.20 0.20 0.23
0.53 0.53 0.57 0.66 0.77 0.90 1.06 1.29 1.58 1.84 1.81 1.75 1.70 1.50 1.32 1.19 1.10 1.09 1.12 1.13 1.17 1.19 1.25 1.20 1.17 1.22 1.18 1.09 1.11 1.11 1.01 0.87 0.68 0.30 0.15 0.20 0.29 0.32 0.30 0.25 0.21 0.20 0.22
0.51 0.56 0.62 0.70 0.83 0.95 1.06 1.18 1.35 1.72 1.73 1.59 1.47 1.32 1.21 1.10 1.03 1.01 1.01 0.99 0.97 0.99 1.06 1.08 1.21 1.19 1.19 1.14 1.09 1.06 1.09 1.06 0.95 0.69 0.33 0.26 0.26 0.27 0.28 0.27 0.26 0.26 0.28
0.51 0.57 0.61 0.64 0.71 0.79 0.84 0.92 0.98 1.16 1.24 1.17 1.12 1.06 0.97 0.89 0.86 0.89 0.90 0.86 0.85 0.89 0.98 0.99 1.01 1.00 1.00 1.02 0.97 0.92 0.96 0.94 0.92 0.93 0.68 0.52 0.43 0.35 0.36 0.36 0.34 0.35 0.34

GEFSSE_prec_meanprecacc_054.txt.gz
Total_Precipitation_Accumulation
0.00 0.00 0.02 0.01 0.01 0.01 0.03 0.03 0.02 0.04 0.05 0.07 0.06 0.06 0.09 0.10 0.07 0.03 0.01 0.01 0.01 0.02 0.05 0.04 0.05 0.05 0.05 0.05 0.04 0.02 0.01 0.00 0.00 0.00 0.00 0.00 0.00 0.00 0.01 0.00 0.02 0.01 0.00
0.00 0.00 0.03 0.01 0.01 0.01 0.03 0.04 0.04 0.04 0.03 0.03 0.05 0.09 0.13 0.12 0.10 0.04 0.01 0.01 0.01 0.01 0.02 0.03 0.03 0.04 0.04 0.04 0.03 0.02 0.00 0.00 0.00 0.00 0.00 0.00 0.00 0.00 0.00 0.00 0.01 0.01 0.00
0.00 0.00 0.01 0.01 0.01 0.00 0.01 0.03 0.06 0.06 0.04 0.02 0.06 0.09 0.11 0.11 0.10 0.08 0.07 0.02 0.01 0.00 0.00 0.01 0.02 0.03 0.02 0.02 0.02 0.01 0.00 0.00 0.00 0.00 0.00 0.01 0.01 0.00 0.01 0.00 0.00 0.00 0.01
0.00 0.00 0.00 0.01 0.01 0.00 0.01 0.02 0.06 0.07 0.03 0.04 0.11 0.12 0.08 0.10 0.10 0.09 0.08 0.04 0.03 0.00 0.00 0.01 0.01 0.03 0.02 0.01 0.00 0.00 0.00 0.00 0.00 0.01 0.01 0.06 0.06 0.02 0.02 0.03 0.02 0.02 0.03
0.00 0.00 0.00 0.01 0.01 0.01 0.01 0.02 0.04 0.05 0.04 0.05 0.09 0.09 0.06 0.10 0.11 0.09 0.08 0.08 0.08 0.04 0.01 0.02 0.02 0.03 0.02 0.01 0.01 0.01 0.00 0.00 0.00 0.00 0.02 0.09 0.13 0.07 0.05 0.10 0.11 0.09 0.07
0.00 0.00 0.00 0.01 0.01 0.01 0.01 0.01 0.03 0.04 0.03 0.02 0.03 0.06 0.06 0.11 0.16 0.14 0.10 0.12 0.13 0.11 0.05 0.02 0.02 0.03 0.02 0.01 0.01 0.01 0.01 0.01 0.00 0.00 0.02 0.06 0.18 0.16 0.11 0.25 0.34 0.30 0.24
0.00 0.00 0.00 0.01 0.01 0.00 0.00 0.01 0.02 0.03 0.02 0.01 0.01 0.02 0.02 0.06 0.11 0.11 0.10 0.11 0.11 0.10 0.08 0.06 0.04 0.03 0.04 0.04 0.03 0.03 0.04 0.05 0.03 0.02 0.02 0.06 0.18 0.14 0.14 0.36 0.59 0.53 0.40
0.00 0.00 0.01 0.01 0.01 0.01 0.00 0.00 0.01 0.01 0.01 0.01 0.00 0.01 0.01 0.03 0.05 0.07 0.08 0.07 0.06 0.04 0.05 0.06 0.08 0.08 0.06 0.05 0.05 0.05 0.05 0.05 0.05 0.05 0.04 0.08 0.11 0.10 0.21 0.40 0.59 0.60 0.51
0.00 0.00 0.01 0.01 0.01 0.01 0.00 0.00 0.01 0.01 0.01 0.01 0.00 0.01 0.01 0.02 0.03 0.04 0.06 0.07 0.05 0.05 0.06 0.07 0.07 0.06 0.07 0.06 0.05 0.05 0.05 0.05 0.05 0.09 0.10 0.19 0.23 0.23 0.38 0.47 0.53 0.56 0.56
0.00 0.00 0.00 0.00 0.01 0.01 0.01 0.01 0.01 0.01 0.01 0.01 0.01 0.01 0.01 0.01 0.01 0.02 0.05 0.05 0.06 0.06 0.06 0.07 0.08 0.09 0.09 0.08 0.09 0.11 0.09 0.06 0.03 0.03 0.15 0.20 0.24 0.37 0.53 0.59 0.64 0.65 0.69
0.00 0.00 0.00 0.00 0.01 0.01 0.01 0.00 0.00 0.00 0.01 0.01 0.01 0.01 0.01 0.01 0.02 0.06 0.02 0.04 0.04 0.06 0.06 0.07 0.08 0.09 0.09 0.09 0.15 0.22 0.17 0.14 0.09 0.06 0.11 0.17 0.21 0.38 0.58 0.67 0.71 0.77 0.83
0.00 0.00 0.00 0.00 0.00 0.00 0.00 0.00 0.00 0.00 0.00 0.00 0.02 0.03 0.03 0.05 0.05 0.04 0.03 0.05 0.09 0.19 0.20 0.22 0.22 0.15 0.14 0.13 0.38 0.53 0.18 0.20 0.21 0.16 0.14 0.15 0.24 0.46 0.65 0.63 0.65 0.75 0.78
0.00 0.00 0.00 0.00 0.00 0.00 0.00 0.00 0.00 0.00 0.01 0.00 0.01 0.02 0.03 0.04 0.02 0.02 0.05 0.10 0.13 0.18 0.25 0.45 0.54 0.39 0.38 0.39 0.41 0.40 0.14 0.12 0.17 0.17 0.22 0.25 0.28 0.50 0.75 0.64 0.55 0.64 0.74
0.00 0.00 0.00 0.00 0.01 0.01 0.00 0.00 0.00 0.00 0.00 0.00 0.00 0.01 0.02 0.02 0.02 0.05 0.13 0.16 0.16 0.15 0.23 0.30 0.53 0.37 0.29 0.30 0.32 0.29 0.28 0.28 0.22 0.30 0.38 0.25 0.24 0.37 0.64 0.63 0.51 0.50 0.62
0.00 0.00 0.00 0.00 0.01 0.01 0.01 0.01 0.01 0.01 0.01 0.01 0.01 0.01 0.02 0.03 0.04 0.09 0.15 0.22 0.16 0.14 0.21 0.26 0.29 0.36 0.43 0.49 0.39 0.33 0.35 0.36 0.39 0.54 0.56 0.35 0.24 0.28 0.41 0.54 0.55 0.49 0.46
0.01 0.02 0.02 0.02 0.03 0.04 0.04 0.04 0.04 0.05 0.04 0.03 0.03 0.04 0.04 0.05 0.10 0.20 0.24 0.30 0.23 0.26 0.36 0.46 0.49 0.69 0.66 0.55 0.39 0.38 0.34 0.33 0.32 0.38 0.43 0.38 0.22 0.20 0.25 0.34 0.45 0.48 0.44
0.04 0.06 0.07 0.09 0.11 0.11 0.11 0.13 0.12 0.13 0.12 0.09 0.09 0.11 0.13 0.15 0.25 0.40 0.41 0.41 0.46 0.51 0.63 0.74 0.72 0.74 0.63 0.54 0.44 0.45 0.41 0.36 0.30 0.30 0.29 0.25 0.19 0.12 0.12 0.18 0.30 0.40 0.41
0.09 0.13 0.12 0.15 0.20 0.23 0.26 0.30 0.32 0.33 0.29 0.23 0.23 0.25 0.30 0.35 0.47 0.71 0.66 0.63 0.84 0.82 0.93 1.12 1.06 0.95 0.81 0.68 0.55 0.48 0.41 0.35 0.27 0.25 0.20 0.19 0.19 0.12 0.10 0.14 0.19 0.24 0.32
0.23 0.28 0.27 0.29 0.36 0.46 0.51 0.55 0.60 0.62 0.53 0.44 0.41 0.42 0.48 0.53 0.67 0.92 0.88 0.94 1.05 1.19 1.24 1.11 1.27 1.19 1.04 0.94 0.71 0.57 0.41 0.33 0.28 0.25 0.20 0.15 0.14 0.11 0.08 0.08 0.09 0.15 0.30
0.56 0.53 0.56 0.62 0.61 0.60 0.66 0.77 0.77 0.70 0.67 0.67 0.67 0.68 0.70 0.80 0.96 1.25 1.17 1.15 1.29 1.46 1.40 1.33 1.39 1.35 1.15 1.07 0.79 0.49 0.36 0.27 0.23 0.22 0.19 0.16 0.11 0.08 0.09 0.12 0.18 0.17 0.20
0.86 0.84 0.89 0.99 1.14 1.25 1.37 1.43 1.41 1.27 1.19 1.03 0.94 0.87 0.89 0.93 1.09 1.37 1.29 1.43 1.45 1.45 1.41 1.42 1.59 1.53 1.30 1.26 0.99 0.58 0.29 0.19 0.16 0.20 0.25 0.25 0.19 0.17 0.18 0.18 0.20 0.20 0.24
0.92 1.05 1.07 1.07 1.16 1.24 1.51 1.82 2.01 2.04 1.78 1.41 1.27 1.21 1.12 1.12 1.21 1.33 1.38 1.33 1.39 1.45 1.44 1.47 1.58 1.41 1.20 1.24 1.17 0.98 0.55 0.34 0.27 0.29 0.42 0.44 0.37 0.32 0.30 0.26 0.24 0.26 0.29
0.74 0.79 0.78 0.81 0.91 0.98 1.15 1.46 1.71 1.97 1.89 1.66 1.45 1.36 1.29 1.27 1.26 1.33 1.37 1.36 1.37 1.39 1.40 1.51 1.50 1.38 1.21 1.15 1.19 1.30 1.02 0.70 0.47 0.26 0.26 0.33 0.39 0.37 0.32 0.30 0.25 0.25 0.28
0.53 0.54 0.58 0.66 0.77 0.90 1.06 1.29 1.58 1.85 1.81 1.75 1.70 1.50 1.32 1.19 1.11 1.11 1.14 1.16 1.20 1.23 1.30 1.26 1.25 1.33 1.32 1.23 1.26 1.28 1.22 1.11 0.90 0.45 0.24 0.26 0.34 0.37 0.36 0.30 0.26 0.25 0.28
0.51 0.57 0.62 0.71 0.83 0.95 1.06 1.18 1.35 1.72 1.74 1.59 1.47 1.32 1.21 1.10 1.03 1.01 1.02 0.99 0.98 1.00 1.08 1.11 1.25 1.27 1.28 1.25 1.20 1.17 1.22 1.19 1.08 0.82 0.44 0.34 0.33 0.32 0.35 0.33 0.32 0.32 0.34
0.51 0.57 0.61 0.64 0.71 0.79 0.85 0.93 0.99 1.17 1.25 1.18 1.12 1.06 0.97 0.89 0.86 0.89 0.90 0.87 0.86 0.90 0.99 1.01 1.04 1.06 1.07 1.10 1.06 1.02 1.06 1.03 1.01 1.01 0.78 0.63 0.55 0.47 0.47 0.45 0.41 0.42 0.39

GEFSSE_prec_meanprecacc_060.txt.gz
Total_Precipitation_Accumulation
0.00 0.00 0.02 0.01 0.01 0.02 0.04 0.03 0.02 0.04 0.05 0.07 0.06 0.06 0.09 0.10 0.07 0.03 0.01 0.01 0.01 0.02 0.05 0.04 0.05 0.05 0.05 0.05 0.04 0.02 0.01 0.00 0.00 0.00 0.00 0.00 0.00 0.01 0.01 0.01 0.05 0.05 0.01
0.00 0.00 0.03 0.01 0.01 0.01 0.03 0.04 0.04 0.04 0.03 0.03 0.05 0.09 0.13 0.12 0.10 0.04 0.01 0.01 0.01 0.01 0.02 0.03 0.03 0.04 0.04 0.04 0.03 0.02 0.01 0.00 0.00 0.00 0.00 0.00 0.00 0.00 0.00 0.01 0.05 0.03 0.00
0.00 0.00 0.01 0.01 0.01 0.01 0.01 0.03 0.06 0.07 0.04 0.02 0.06 0.09 0.11 0.11 0.10 0.08 0.07 0.02 0.01 0.00 0.00 0.01 0.02 0.03 0.02 0.02 0.02 0.01 0.00 0.00 0.00 0.00 0.02 0.05 0.02 0.01 0.01 0.01 0.00 0.01 0.01
0.00 0.00 0.00 0.01 0.01 0.01 0.01 0.02 0.06 0.07 0.03 0.04 0.11 0.12 0.08 0.10 0.10 0.09 0.08 0.04 0.03 0.00 0.00 0.01 0.01 0.03 0.02 0.01 0.00 0.00 0.00 0.00 0.00 0.01 0.04 0.14 0.08 0.02 0.02 0.03 0.02 0.02 0.03
0.00 0.00 0.00 0.01 0.01 0.01 0.01 0.02 0.04 0.05 0.04 0.05 0.09 0.09 0.06 0.10 0.11 0.09 0.08 0.08 0.08 0.04 0.01 0.02 0.02 0.03 0.02 0.01 0.01 0.01 0.00 0.00 0.00 0.00 0.02 0.10 0.14 0.08 0.05 0.10 0.11 0.09 0.08
0.00 0.00 0.00 0.01 0.01 0.01 0.01 0.01 0.03 0.04 0.03 0.02 0.03 0.06 0.06 0.11 0.16 0.14 0.10 0.12 0.13 0.11 0.05 0.02 0.02 0.03 0.02 0.01 0.01 0.01 0.01 0.01 0.00 0.00 0.02 0.06 0.21 0.18 0.11 0.26 0.36 0.32 0.26
0.00 0.00 0.00 0.01 0.01 0.00 0.00 0.01 0.02 0.03 0.02 0.01 0.01 0.02 0.02 0.06 0.11 0.11 0.10 0.11 0.11 0.10 0.08 0.06 0.04 0.03 0.04 0.04 0.03 0.03 0.04 0.05 0.03 0.02 0.02 0.06 0.19 0.15 0.14 0.38 0.63 0.58 0.44
0.00 0.00 0.01 0.01 0.01 0.01 0.00 0.00 0.01 0.01 0.01 0.01 0.01 0.01 0.01 0.03 0.05 0.07 0.08 0.07 0.06 0.04 0.05 0.06 0.08 0.08 0.06 0.05 0.05 0.05 0.05 0.05 0.05 0.05 0.04 0.08 0.11 0.10 0.21 0.40 0.61 0.63 0.56
0.00 0.00 0.01 0.01 0.01 0.01 0.00 0.00 0.01 0.01 0.01 0.01 0.01 0.01 0.01 0.02 0.03 0.04 0.06 0.07 0.06 0.05 0.06 0.07 0.07 0.07 0.07 0.07 0.05 0.05 0.05 0.05 0.05 0.09 0.10 0.19 0.23 0.23 0.39 0.48 0.54 0.59 0.60
0.00 0.00 0.00 0.00 0.01 0.01 0.01 0.01 0.01 0.01 0.01 0.01 0.01 0.01 0.01 0.01 0.01 0.03 0.05 0.06 0.06 0.06 0.06 0.07 0.09 0.09 0.09 0.09 0.10 0.11 0.10 0.06 0.03 0.03 0.16 0.21 0.25 0.39 0.54 0.60 0.65 0.66 0.71
0.00 0.00 0.00 0.00 0.01 0.01 0.01 0.00 0.00 0.00 0.01 0.01 0.01 0.01 0.01 0.01 0.04 0.08 0.06 0.07 0.06 0.07 0.07 0.08 0.09 0.10 0.11 0.10 0.17 0.25 0.19 0.14 0.09 0.06 0.11 0.18 0.23 0.40 0.60 0.68 0.73 0.78 0.84
0.00 0.00 0.00 0.00 0.00 0.00 0.00 0.00 0.00 0.00 0.01 0.01 0.03 0.06 0.07 0.10 0.09 0.06 0.08 0.10 0.12 0.21 0.22 0.23 0.24 0.17 0.16 0.14 0.45 0.65 0.20 0.22 0.22 0.16 0.15 0.16 0.26 0.49 0.68 0.66 0.69 0.78 0.80
0.00 0.00 0.00 0.00 0.00 0.00 0.00 0.00 0.00 0.00 0.02 0.01 0.02 0.05 0.09 0.10 0.08 0.05 0.08 0.15 0.20 0.22 0.28 0.49 0.59 0.42 0.42 0.45 0.49 0.50 0.18 0.14 0.18 0.18 0.24 0.28 0.32 0.55 0.79 0.68 0.59 0.68 0.78
0.00 0.00 0.00 0.00 0.01 0.01 0.00 0.00 0.00 0.00 0.01 0.01 0.02 0.02 0.06 0.08 0.07 0.09 0.17 0.20 0.24 0.23 0.33 0.38 0.60 0.43 0.35 0.35 0.37 0.32 0.30 0.30 0.23 0.32 0.43 0.30 0.28 0.41 0.69 0.67 0.56 0.54 0.66
0.00 0.00 0.00 0.00 0.01 0.01 0.01 0.01 0.01 0.01 0.01 0.01 0.02 0.03 0.04 0.06 0.08 0.14 0.20 0.28 0.21 0.19 0.30 0.35 0.34 0.44 0.52 0.56 0.43 0.36 0.40 0.40 0.42 0.59 0.63 0.42 0.28 0.30 0.44 0.58 0.58 0.53 0.50
0.02 0.02 0.02 0.02 0.03 0.04 0.04 0.04 0.04 0.05 0.04 0.03 0.03 0.04 0.05 0.09 0.17 0.29 0.33 0.41 0.31 0.34 0.45 0.56 0.59 0.83 0.78 0.65 0.46 0.44 0.41 0.40 0.36 0.42 0.48 0.43 0.26 0.22 0.28 0.37 0.48 0.52 0.48
0.05 0.06 0.07 0.09 0.11 0.11 0.12 0.13 0.12 0.13 0.13 0.10 0.10 0.12 0.15 0.21 0.36 0.51 0.52 0.52 0.58 0.64 0.77 0.86 0.85 0.89 0.76 0.68 0.60 0.60 0.54 0.45 0.35 0.36 0.35 0.31 0.23 0.16 0.16 0.22 0.34 0.44 0.44
0.11 0.13 0.12 0.16 0.21 0.24 0.27 0.31 0.34 0.35 0.31 0.25 0.25 0.29 0.36 0.42 0.59 0.85 0.76 0.74 1.00 0.98 1.11 1.30 1.24 1.15 1.00 0.90 0.77 0.65 0.56 0.44 0.33 0.32 0.26 0.27 0.27 0.17 0.14 0.21 0.26 0.28 0.35
0.30 0.30 0.27 0.30 0.39 0.48 0.54 0.58 0.63 0.65 0.56 0.47 0.45 0.47 0.53 0.59 0.76 1.05 0.98 1.07 1.20 1.36 1.41 1.25 1.49 1.42 1.24 1.16 0.92 0.73 0.54 0.44 0.36 0.30 0.25 0.19 0.20 0.17 0.12 0.15 0.16 0.20 0.34
0.61 0.55 0.58 0.66 0.66 0.65 0.70 0.81 0.80 0.73 0.70 0.69 0.70 0.71 0.74 0.84 1.01 1.33 1.25 1.25 1.41 1.58 1.52 1.46 1.56 1.53 1.32 1.25 0.94 0.64 0.51 0.38 0.31 0.29 0.25 0.20 0.15 0.12 0.12 0.17 0.28 0.26 0.27
0.89 0.87 0.93 1.03 1.20 1.31 1.43 1.46 1.44 1.29 1.20 1.04 0.95 0.88 0.91 0.95 1.12 1.41 1.34 1.49 1.51 1.52 1.50 1.52 1.71 1.67 1.44 1.44 1.16 0.74 0.44 0.29 0.24 0.27 0.32 0.30 0.22 0.22 0.28 0.32 0.36 0.40 0.46
0.98 1.11 1.14 1.12 1.20 1.28 1.54 1.84 2.02 2.04 1.78 1.41 1.27 1.21 1.12 1.12 1.23 1.35 1.41 1.36 1.43 1.50 1.50 1.54 1.67 1.51 1.29 1.37 1.31 1.14 0.68 0.44 0.35 0.35 0.48 0.50 0.43 0.41 0.42 0.39 0.42 0.48 0.53
0.89 0.93 0.90 0.87 0.97 1.02 1.17 1.47 1.71 1.97 1.90 1.66 1.45 1.36 1.29 1.27 1.26 1.33 1.38 1.37 1.38 1.41 1.43 1.55 1.55 1.44 1.28 1.26 1.34 1.45 1.13 0.78 0.55 0.33 0.32 0.41 0.48 0.47 0.43 0.44 0.41 0.39 0.40
0.70 0.66 0.63 0.70 0.81 0.93 1.08 1.31 1.60 1.85 1.81 1.75 1.70 1.50 1.32 1.19 1.11 1.11 1.14 1.17 1.21 1.24 1.31 1.27 1.29 1.37 1.38 1.29 1.34 1.38 1.32 1.22 1.02 0.55 0.33 0.36 0.46 0.48 0.45 0.40 0.38 0.38 0.39
0.67 0.65 0.65 0.73 0.86 0.98 1.09 1.21 1.38 1.74 1.74 1.60 1.48 1.33 1.21 1.10 1.03 1.01 1.02 0.99 0.98 1.01 1.09 1.13 1.28 1.30 1.32 1.29 1.26 1.25 1.32 1.30 1.19 0.92 0.54 0.47 0.48 0.45 0.46 0.45 0.47 0.50 0.54
0.60 0.63 0.65 0.68 0.76 0.84 0.89 0.97 1.03 1.21 1.28 1.20 1.14 1.07 0.98 0.89 0.86 0.89 0.90 0.87 0.87 0.91 1.00 1.03 1.07 1.09 1.11 1.15 1.11 1.09 1.14 1.12 1.10 1.11 0.87 0.75 0.70 0.62 0.62 0.61 0.61 0.63 0.59

GEFSSE_prec_meanprecacc_066.txt.gz
Total_Precipitation_Accumulation
0.00 0.00 0.02 0.01 0.01 0.02 0.04 0.03 0.02 0.04 0.05 0.07 0.06 0.06 0.09 0.10 0.07 0.03 0.01 0.01 0.02 0.03 0.05 0.04 0.05 0.05 0.05 0.05 0.04 0.02 0.01 0.00 0.00 0.00 0.01 0.01 0.01 0.01 0.01 0.01 0.05 0.05 0.02
0.00 0.00 0.03 0.01 0.01 0.01 0.03 0.04 0.04 0.04 0.03 0.03 0.05 0.09 0.13 0.12 0.10 0.04 0.01 0.01 0.01 0.01 0.02 0.03 0.03 0.04 0.04 0.04 0.03 0.02 0.01 0.00 0.00 0.00 0.00 0.00 0.00 0.01 0.01 0.01 0.05 0.03 0.00
0.00 0.00 0.01 0.01 0.01 0.01 0.01 0.03 0.06 0.07 0.04 0.02 0.06 0.09 0.12 0.11 0.10 0.08 0.07 0.02 0.01 0.00 0.00 0.01 0.02 0.03 0.02 0.02 0.02 0.01 0.00 0.00 0.00 0.00 0.02 0.06 0.02 0.01 0.01 0.01 0.00 0.01 0.01
0.00 0.00 0.00 0.01 0.01 0.01 0.01 0.02 0.06 0.07 0.04 0.04 0.11 0.12 0.08 0.10 0.10 0.09 0.08 0.04 0.03 0.00 0.00 0.01 0.01 0.03 0.02 0.01 0.00 0.00 0.00 0.00 0.00 0.01 0.05 0.16 0.08 0.03 0.03 0.03 0.02 0.02 0.03
0.00 0.00 0.00 0.01 0.01 0.01 0.01 0.02 0.04 0.05 0.04 0.05 0.09 0.09 0.06 0.10 0.11 0.09 0.08 0.08 0.08 0.04 0.01 0.02 0.02 0.03 0.02 0.01 0.01 0.01 0.00 0.00 0.00 0.01 0.03 0.12 0.15 0.09 0.07 0.11 0.11 0.09 0.08
0.00 0.00 0.00 0.01 0.01 0.01 0.01 0.01 0.03 0.04 0.04 0.03 0.03 0.06 0.06 0.11 0.16 0.14 0.10 0.12 0.13 0.11 0.05 0.02 0.02 0.03 0.02 0.01 0.01 0.01 0.01 0.01 0.00 0.01 0.02 0.06 0.21 0.20 0.13 0.27 0.37 0.32 0.26
0.00 0.00 0.00 0.01 0.01 0.00 0.00 0.01 0.02 0.03 0.03 0.01 0.01 0.02 0.02 0.06 0.11 0.11 0.10 0.11 0.11 0.10 0.08 0.06 0.04 0.03 0.04 0.04 0.03 0.03 0.04 0.05 0.03 0.02 0.02 0.06 0.19 0.16 0.16 0.40 0.64 0.58 0.45
0.00 0.00 0.01 0.01 0.01 0.01 0.00 0.01 0.01 0.01 0.01 0.01 0.01 0.01 0.01 0.03 0.05 0.07 0.08 0.07 0.06 0.04 0.05 0.06 0.08 0.08 0.06 0.05 0.05 0.05 0.05 0.05 0.05 0.05 0.04 0.08 0.12 0.11 0.24 0.43 0.62 0.64 0.56
0.00 0.00 0.01 0.01 0.01 0.01 0.00 0.00 0.01 0.01 0.01 0.01 0.01 0.01 0.01 0.02 0.03 0.04 0.06 0.07 0.06 0.05 0.07 0.07 0.07 0.07 0.07 0.07 0.05 0.05 0.05 0.05 0.05 0.09 0.10 0.19 0.24 0.26 0.43 0.51 0.56 0.60 0.61
0.00 0.00 0.00 0.00 0.01 0.01 0.01 0.01 0.01 0.01 0.01 0.01 0.01 0.01 0.01 0.01 0.01 0.03 0.06 0.06 0.06 0.07 0.06 0.07 0.09 0.09 0.10 0.09 0.10 0.12 0.10 0.06 0.03 0.04 0.16 0.21 0.26 0.43 0.61 0.65 0.67 0.67 0.71
0.00 0.00 0.00 0.00 0.01 0.01 0.01 0.00 0.00 0.00 0.01 0.01 0.01 0.01 0.01 0.01 0.04 0.09 0.07 0.09 0.08 0.10 0.10 0.09 0.11 0.11 0.12 0.10 0.17 0.26 0.19 0.14 0.09 0.07 0.12 0.19 0.25 0.46 0.68 0.73 0.76 0.81 0.85
0.00 0.00 0.00 0.00 0.00 0.00 0.00 0.00 0.00 0.00 0.01 0.01 0.03 0.06 0.07 0.10 0.10 0.06 0.10 0.14 0.18 0.29 0.30 0.30 0.29 0.21 0.19 0.16 0.47 0.69 0.22 0.23 0.24 0.18 0.17 0.18 0.31 0.58 0.76 0.71 0.73 0.81 0.82
0.00 0.00 0.00 0.00 0.00 0.00 0.00 0.00 0.00 0.00 0.02 0.01 0.02 0.06 0.09 0.11 0.08 0.06 0.09 0.18 0.27 0.31 0.36 0.59 0.69 0.48 0.47 0.50 0.53 0.54 0.23 0.19 0.23 0.23 0.29 0.32 0.41 0.68 0.90 0.76 0.65 0.72 0.80
0.00 0.00 0.00 0.00 0.01 0.01 0.00 0.00 0.00 0.00 0.01 0.01 0.03 0.04 0.08 0.11 0.10 0.12 0.21 0.25 0.29 0.30 0.43 0.49 0.70 0.55 0.44 0.44 0.47 0.44 0.42 0.40 0.32 0.41 0.51 0.36 0.38 0.56 0.81 0.77 0.63 0.60 0.69
0.01 0.01 0.01 0.01 0.01 0.01 0.01 0.02 0.01 0.02 0.03 0.03 0.05 0.08 0.10 0.14 0.17 0.22 0.26 0.34 0.29 0.28 0.40 0.46 0.48 0.60 0.67 0.73 0.62 0.54 0.56 0.56 0.53 0.69 0.71 0.50 0.38 0.41 0.55 0.68 0.67 0.60 0.56
0.05 0.03 0.02 0.03 0.04 0.05 0.04 0.05 0.05 0.06 0.07 0.07 0.09 0.11 0.15 0.23 0.29 0.39 0.41 0.48 0.39 0.43 0.55 0.66 0.71 0.98 0.94 0.83 0.64 0.60 0.58 0.57 0.52 0.55 0.59 0.55 0.38 0.35 0.41 0.51 0.61 0.62 0.56
0.12 0.11 0.11 0.13 0.14 0.14 0.13 0.15 0.15 0.16 0.16 0.14 0.16 0.20 0.26 0.34 0.47 0.61 0.61 0.61 0.66 0.71 0.83 0.95 0.95 1.01 0.89 0.82 0.74 0.75 0.68 0.58 0.49 0.47 0.46 0.43 0.35 0.29 0.31 0.39 0.51 0.58 0.56
0.26 0.29 0.27 0.32 0.36 0.35 0.36 0.37 0.39 0.42 0.38 0.32 0.32 0.37 0.45 0.51 0.69 0.94 0.84 0.84 1.09 1.06 1.18 1.37 1.31 1.23 1.10 1.00 0.86 0.74 0.65 0.52 0.40 0.40 0.36 0.37 0.40 0.29 0.28 0.38 0.45 0.46 0.55
0.56 0.62 0.60 0.62 0.71 0.77 0.75 0.74 0.75 0.75 0.67 0.56 0.53 0.56 0.59 0.64 0.81 1.10 1.05 1.12 1.25 1.41 1.46 1.30 1.55 1.48 1.30 1.23 0.98 0.79 0.58 0.47 0.40 0.36 0.32 0.25 0.28 0.28 0.22 0.25 0.30 0.37 0.53
1.11 1.19 1.23 1.25 1.21 1.07 1.00 1.08 1.02 0.87 0.82 0.78 0.79 0.79 0.78 0.88 1.04 1.37 1.29 1.27 1.43 1.60 1.54 1.49 1.59 1.57 1.36 1.31 1.00 0.68 0.55 0.42 0.36 0.34 0.29 0.25 0.20 0.19 0.20 0.27 0.40 0.41 0.44
1.62 1.72 1.83 1.90 1.97 1.85 1.82 1.82 1.73 1.50 1.38 1.17 1.03 0.93 0.94 0.96 1.12 1.41 1.34 1.49 1.52 1.53 1.51 1.54 1.72 1.68 1.46 1.48 1.20 0.77 0.47 0.31 0.26 0.30 0.34 0.33 0.26 0.26 0.35 0.44 0.48 0.52 0.61
1.58 1.90 2.11 1.93 1.81 1.75 1.91 2.16 2.30 2.23 1.90 1.48 1.31 1.25 1.14 1.13 1.23 1.35 1.41 1.36 1.44 1.51 1.51 1.54 1.68 1.52 1.30 1.40 1.34 1.18 0.70 0.46 0.35 0.36 0.50 0.52 0.45 0.45 0.47 0.48 0.54 0.60 0.69
1.33 1.58 1.62 1.39 1.39 1.36 1.45 1.67 1.84 2.08 1.99 1.74 1.50 1.38 1.31 1.28 1.27 1.33 1.38 1.37 1.38 1.41 1.43 1.55 1.56 1.45 1.29 1.28 1.38 1.48 1.16 0.79 0.55 0.34 0.34 0.43 0.51 0.51 0.48 0.50 0.49 0.51 0.58
0.92 0.89 0.89 0.95 1.02 1.10 1.22 1.43 1.69 1.94 1.89 1.82 1.75 1.53 1.35 1.22 1.14 1.13 1.15 1.17 1.21 1.24 1.31 1.27 1.29 1.37 1.38 1.29 1.35 1.40 1.35 1.24 1.04 0.55 0.34 0.38 0.48 0.52 0.51 0.48 0.48 0.52 0.55
0.79 0.80 0.81 0.90 1.04 1.14 1.23 1.34 1.51 1.84 1.82 1.66 1.54 1.39 1.29 1.20 1.12 1.05 1.04 1.01 0.99 1.02 1.09 1.13 1.28 1.30 1.32 1.30 1.26 1.26 1.34 1.33 1.23 0.95 0.56 0.48 0.50 0.47 0.51 0.53 0.55 0.63 0.72
0.70 0.79 0.83 0.85 0.92 0.98 1.02 1.09 1.14 1.29 1.35 1.27 1.21 1.15 1.05 0.96 0.92 0.94 0.93 0.89 0.89 0.93 1.01 1.04 1.07 1.09 1.11 1.15 1.12 1.09 1.15 1.14 1.12 1.13 0.89 0.76 0.71 0.64 0.65 0.66 0.68 0.72 0.70

GEFSSE_prec_meanprecacc_072.txt.gz
Total_Precipitation_Accumulation
0.00 0.00 0.02 0.01 0.01 0.02 0.04 0.03 0.02 0.04 0.05 0.07 0.06 0.06 0.09 0.10 0.07 0.03 0.01 0.01 0.02 0.03 0.05 0.04 0.05 0.05 0.05 0.05 0.04 0.02 0.01 0.00 0.00 0.01 0.01 0.02 0.02 0.03 0.03 0.02 0.05 0.05 0.02
0.00 0.00 0.03 0.01 0.01 0.01 0.04 0.04 0.04 0.04 0.03 0.03 0.05 0.09 0.13 0.12 0.10 0.04 0.01 0.01 0.01 0.01 0.03 0.03 0.04 0.04 0.04 0.04 0.03 0.02 0.01 0.00 0.00 0.01 0.01 0.01 0.03 0.05 0.05 0.02 0.05 0.03 0.01
0.00 0.00 0.01 0.01 0.01 0.01 0.01 0.03 0.06 0.07 0.04 0.02 0.06 0.10 0.12 0.11 0.10 0.08 0.07 0.02 0.01 0.01 0.01 0.01 0.02 0.03 0.02 0.02 0.02 0.01 0.00 0.00 0.00 0.01 0.02 0.06 0.03 0.04 0.05 0.02 0.01 0.01 0.01
0.00 0.00 0.00 0.01 0.01 0.01 0.01 0.02 0.06 0.07 0.04 0.04 0.11 0.12 0.08 0.10 0.11 0.09 0.09 0.05 0.03 0.01 0.00 0.01 0.01 0.03 0.02 0.01 0.00 0.00 0.00 0.00 0.01 0.01 0.05 0.16 0.08 0.04 0.05 0.05 0.03 0.02 0.03
0.00 0.00 0.00 0.01 0.01 0.01 0.01 0.02 0.04 0.05 0.04 0.05 0.09 0.10 0.07 0.10 0.11 0.10 0.08 0.08 0.08 0.04 0.01 0.02 0.02 0.03 0.02 0.01 0.01 0.01 0.00 0.00 0.00 0.01 0.03 0.12 0.15 0.09 0.09 0.14 0.13 0.10 0.08
0.00 0.00 0.00 0.01 0.01 0.01 0.01 0.02 0.03 0.04 0.04 0.03 0.04 0.06 0.06 0.11 0.16 0.14 0.10 0.12 0.13 0.11 0.05 0.02 0.02 0.03 0.02 0.01 0.01 0.01 0.01 0.01 0.01 0.01 0.02 0.06 0.21 0.21 0.16 0.31 0.40 0.35 0.27
0.00 0.00 0.00 0.01 0.01 0.00 0.01 0.01 0.02 0.03 0.03 0.01 0.01 0.02 0.02 0.06 0.11 0.12 0.10 0.11 0.11 0.10 0.08 0.06 0.04 0.04 0.04 0.04 0.03 0.03 0.04 0.05 0.03 0.02 0.02 0.06 0.19 0.16 0.19 0.44 0.68 0.62 0.48
0.00 0.00 0.01 0.01 0.01 0.01 0.01 0.01 0.01 0.02 0.02 0.01 0.01 0.01 0.01 0.03 0.05 0.07 0.08 0.07 0.06 0.04 0.05 0.07 0.08 0.08 0.06 0.05 0.05 0.05 0.05 0.05 0.05 0.05 0.04 0.08 0.12 0.12 0.27 0.47 0.68 0.69 0.60
0.00 0.00 0.01 0.01 0.01 0.01 0.01 0.01 0.01 0.01 0.01 0.01 0.01 0.01 0.01 0.02 0.03 0.04 0.07 0.07 0.06 0.06 0.07 0.07 0.07 0.07 0.07 0.07 0.05 0.05 0.05 0.05 0.05 0.09 0.10 0.19 0.24 0.26 0.47 0.56 0.62 0.66 0.66
0.00 0.00 0.00 0.01 0.01 0.01 0.01 0.01 0.01 0.01 0.01 0.01 0.01 0.01 0.01 0.01 0.02 0.03 0.06 0.06 0.07 0.07 0.07 0.08 0.10 0.10 0.10 0.10 0.11 0.12 0.10 0.06 0.03 0.04 0.16 0.21 0.27 0.45 0.67 0.72 0.74 0.74 0.78
0.00 0.00 0.00 0.00 0.01 0.01 0.01 0.00 0.01 0.01 0.01 0.01 0.01 0.02 0.02 0.02 0.04 0.09 0.07 0.10 0.11 0.14 0.14 0.13 0.14 0.14 0.14 0.12 0.19 0.28 0.21 0.15 0.10 0.08 0.13 0.20 0.27 0.49 0.74 0.82 0.87 0.90 0.92
0.00 0.00 0.00 0.00 0.00 0.00 0.00 0.00 0.00 0.00 0.01 0.01 0.03 0.06 0.08 0.10 0.10 0.06 0.10 0.17 0.23 0.37 0.39 0.40 0.40 0.32 0.27 0.22 0.54 0.75 0.26 0.27 0.26 0.20 0.19 0.20 0.34 0.63 0.85 0.82 0.84 0.92 0.90
0.00 0.00 0.00 0.00 0.00 0.01 0.00 0.00 0.00 0.00 0.02 0.01 0.02 0.06 0.10 0.11 0.09 0.07 0.11 0.22 0.32 0.41 0.47 0.73 0.85 0.62 0.58 0.59 0.60 0.60 0.27 0.23 0.26 0.27 0.32 0.36 0.46 0.77 1.02 0.87 0.76 0.84 0.92
0.00 0.00 0.00 0.01 0.01 0.01 0.01 0.01 0.01 0.01 0.02 0.02 0.04 0.05 0.09 0.13 0.12 0.14 0.24 0.29 0.35 0.39 0.56 0.65 0.86 0.69 0.58 0.56 0.59 0.53 0.49 0.47 0.39 0.47 0.55 0.40 0.45 0.68 0.97 0.92 0.78 0.74 0.81
0.01 0.02 0.02 0.02 0.02 0.02 0.02 0.03 0.03 0.03 0.05 0.06 0.08 0.11 0.13 0.17 0.21 0.27 0.31 0.40 0.37 0.39 0.54 0.66 0.68 0.78 0.85 0.91 0.77 0.68 0.69 0.67 0.61 0.76 0.76 0.57 0.49 0.56 0.75 0.89 0.87 0.79 0.73
0.07 0.07 0.08 0.08 0.08 0.08 0.08 0.08 0.10 0.13 0.15 0.17 0.19 0.21 0.24 0.32 0.40 0.48 0.51 0.58 0.51 0.54 0.66 0.81 0.89 1.14 1.09 0.99 0.79 0.75 0.72 0.69 0.62 0.64 0.65 0.61 0.47 0.47 0.57 0.73 0.83 0.84 0.78
0.17 0.21 0.24 0.28 0.29 0.32 0.32 0.32 0.34 0.37 0.41 0.40 0.41 0.43 0.45 0.53 0.68 0.79 0.76 0.74 0.82 0.85 0.94 1.06 1.08 1.14 1.00 0.92 0.83 0.84 0.78 0.67 0.54 0.53 0.51 0.47 0.42 0.38 0.44 0.57 0.71 0.80 0.77
0.39 0.47 0.53 0.59 0.68 0.74 0.78 0.82 0.81 0.81 0.78 0.71 0.69 0.72 0.76 0.82 0.94 1.15 1.02 0.99 1.21 1.13 1.24 1.45 1.38 1.29 1.17 1.07 0.92 0.80 0.73 0.60 0.45 0.45 0.41 0.42 0.46 0.35 0.37 0.52 0.60 0.61 0.72
0.75 0.91 0.94 1.02 1.16 1.26 1.31 1.32 1.36 1.36 1.24 1.08 1.04 1.02 0.95 0.96 1.06 1.32 1.21 1.23 1.30 1.45 1.50 1.35 1.59 1.52 1.33 1.26 1.04 0.83 0.62 0.50 0.42 0.39 0.35 0.29 0.32 0.32 0.27 0.33 0.41 0.50 0.69
1.36 1.53 1.66 1.78 1.77 1.63 1.57 1.70 1.74 1.58 1.52 1.41 1.36 1.32 1.21 1.20 1.28 1.55 1.40 1.33 1.47 1.62 1.56 1.50 1.60 1.59 1.39 1.35 1.02 0.70 0.57 0.43 0.37 0.36 0.32 0.28 0.24 0.23 0.25 0.33 0.48 0.49 0.52
1.90 2.05 2.21 2.40 2.51 2.41 2.43 2.48 2.42 2.13 1.99 1.75 1.55 1.38 1.29 1.22 1.33 1.59 1.43 1.53 1.54 1.54 1.52 1.55 1.73 1.69 1.47 1.50 1.21 0.77 0.47 0.32 0.27 0.31 0.36 0.35 0.28 0.29 0.39 0.50 0.54 0.57 0.64
1.74 2.11 2.43 2.35 2.31 2.26 2.45 2.69 2.83 2.76 2.36 1.85 1.64 1.55 1.38 1.30 1.36 1.45 1.47 1.40 1.45 1.51 1.51 1.54 1.68 1.52 1.31 1.41 1.35 1.19 0.70 0.46 0.36 0.36 0.50 0.53 0.47 0.47 0.50 0.50 0.56 0.62 0.71
1.46 1.74 1.81 1.62 1.68 1.66 1.75 1.99 2.14 2.40 2.30 2.04 1.75 1.58 1.47 1.40 1.37 1.41 1.43 1.40 1.40 1.42 1.43 1.55 1.56 1.45 1.29 1.28 1.38 1.48 1.16 0.80 0.56 0.34 0.34 0.43 0.52 0.52 0.49 0.51 0.49 0.52 0.59
1.01 0.97 0.98 1.04 1.12 1.21 1.35 1.60 1.87 2.13 2.11 2.01 1.93 1.68 1.47 1.32 1.23 1.20 1.21 1.21 1.23 1.26 1.33 1.28 1.29 1.37 1.38 1.29 1.35 1.40 1.35 1.24 1.04 0.56 0.34 0.38 0.48 0.52 0.51 0.48 0.48 0.52 0.56
0.85 0.87 0.87 0.97 1.11 1.22 1.33 1.47 1.66 2.01 1.99 1.82 1.68 1.51 1.42 1.32 1.23 1.14 1.12 1.07 1.04 1.05 1.11 1.14 1.29 1.30 1.32 1.30 1.26 1.26 1.34 1.33 1.23 0.95 0.56 0.49 0.50 0.47 0.51 0.53 0.55 0.63 0.73
0.75 0.84 0.90 0.92 0.99 1.05 1.11 1.19 1.24 1.41 1.48 1.38 1.31 1.26 1.19 1.10 1.05 1.06 1.04 0.99 0.97 0.99 1.07 1.08 1.10 1.10 1.12 1.16 1.12 1.09 1.15 1.14 1.12 1.14 0.89 0.77 0.72 0.64 0.65 0.67 0.68 0.73 0.70

GEFSSE_prec_meanprecacc_078.txt.gz
Total_Precipitation_Accumulation
0.00 0.00 0.02 0.01 0.01 0.02 0.04 0.03 0.03 0.04 0.05 0.07 0.06 0.06 0.09 0.10 0.07 0.03 0.01 0.01 0.02 0.03 0.05 0.04 0.05 0.05 0.05 0.05 0.04 0.02 0.01 0.01 0.01 0.01 0.02 0.03 0.03 0.04 0.04 0.02 0.06 0.06 0.03
0.00 0.00 0.03 0.01 0.01 0.01 0.04 0.04 0.04 0.04 0.03 0.03 0.05 0.09 0.13 0.12 0.10 0.04 0.02 0.01 0.01 0.01 0.03 0.03 0.04 0.04 0.04 0.04 0.04 0.02 0.01 0.00 0.01 0.01 0.01 0.02 0.03 0.07 0.06 0.03 0.06 0.04 0.01
0.00 0.00 0.01 0.01 0.01 0.01 0.01 0.03 0.06 0.07 0.04 0.02 0.06 0.10 0.12 0.11 0.10 0.08 0.07 0.03 0.01 0.01 0.01 0.01 0.02 0.03 0.02 0.02 0.02 0.01 0.01 0.00 0.01 0.01 0.04 0.08 0.03 0.05 0.06 0.03 0.01 0.01 0.02
0.00 0.00 0.00 0.01 0.01 0.01 0.01 0.02 0.06 0.07 0.04 0.04 0.11 0.12 0.08 0.10 0.11 0.09 0.09 0.05 0.03 0.01 0.01 0.01 0.01 0.03 0.02 0.01 0.01 0.00 0.00 0.00 0.01 0.02 0.07 0.17 0.09 0.04 0.06 0.06 0.04 0.02 0.03
0.00 0.00 0.00 0.01 0.01 0.01 0.01 0.02 0.04 0.05 0.04 0.05 0.09 0.10 0.07 0.10 0.11 0.10 0.08 0.08 0.09 0.04 0.01 0.02 0.03 0.03 0.02 0.01 0.01 0.01 0.01 0.00 0.01 0.02 0.04 0.13 0.18 0.11 0.10 0.15 0.14 0.11 0.09
0.00 0.00 0.00 0.01 0.01 0.01 0.01 0.02 0.03 0.04 0.04 0.03 0.04 0.07 0.06 0.11 0.16 0.14 0.10 0.12 0.14 0.12 0.05 0.02 0.03 0.03 0.02 0.01 0.01 0.01 0.01 0.01 0.01 0.03 0.03 0.08 0.24 0.23 0.18 0.33 0.42 0.37 0.28
0.00 0.00 0.00 0.01 0.01 0.01 0.01 0.01 0.02 0.03 0.03 0.01 0.01 0.02 0.02 0.07 0.11 0.12 0.10 0.11 0.11 0.10 0.09 0.07 0.04 0.04 0.04 0.04 0.03 0.03 0.04 0.05 0.04 0.03 0.03 0.07 0.21 0.18 0.22 0.48 0.72 0.65 0.50
0.00 0.00 0.01 0.01 0.01 0.01 0.01 0.01 0.01 0.02 0.02 0.01 0.01 0.01 0.01 0.03 0.06 0.07 0.08 0.07 0.06 0.05 0.06 0.07 0.08 0.08 0.06 0.05 0.05 0.05 0.05 0.05 0.05 0.05 0.05 0.08 0.13 0.13 0.31 0.56 0.75 0.74 0.64
0.00 0.00 0.01 0.01 0.01 0.01 0.01 0.01 0.01 0.01 0.01 0.01 0.01 0.01 0.01 0.02 0.03 0.04 0.07 0.07 0.06 0.06 0.07 0.08 0.08 0.07 0.08 0.07 0.06 0.05 0.05 0.05 0.05 0.09 0.10 0.19 0.25 0.27 0.51 0.65 0.71 0.74 0.71
0.00 0.00 0.00 0.01 0.01 0.01 0.01 0.01 0.01 0.01 0.01 0.01 0.01 0.02 0.02 0.02 0.02 0.03 0.06 0.06 0.07 0.08 0.08 0.10 0.11 0.12 0.12 0.11 0.12 0.13 0.11 0.07 0.03 0.04 0.16 0.22 0.28 0.46 0.69 0.79 0.85 0.86 0.87
0.00 0.01 0.00 0.01 0.01 0.01 0.01 0.01 0.01 0.01 0.01 0.01 0.02 0.02 0.02 0.02 0.05 0.10 0.08 0.11 0.13 0.16 0.17 0.16 0.17 0.18 0.18 0.16 0.22 0.31 0.24 0.17 0.11 0.09 0.13 0.20 0.27 0.50 0.77 0.87 0.96 1.03 1.05
0.00 0.00 0.01 0.01 0.01 0.01 0.01 0.01 0.01 0.01 0.02 0.02 0.04 0.07 0.09 0.12 0.12 0.08 0.12 0.19 0.26 0.40 0.44 0.47 0.49 0.40 0.34 0.30 0.63 0.83 0.30 0.29 0.30 0.23 0.21 0.23 0.36 0.65 0.87 0.86 0.91 1.03 1.04
0.00 0.00 0.00 0.01 0.01 0.01 0.01 0.01 0.02 0.02 0.05 0.04 0.03 0.07 0.12 0.14 0.12 0.10 0.14 0.24 0.35 0.46 0.54 0.83 0.99 0.73 0.71 0.74 0.79 0.74 0.34 0.29 0.32 0.33 0.39 0.43 0.52 0.83 1.08 0.92 0.83 0.91 1.01
0.00 0.00 0.01 0.01 0.02 0.03 0.02 0.02 0.02 0.03 0.04 0.04 0.07 0.09 0.15 0.18 0.16 0.19 0.28 0.34 0.41 0.46 0.65 0.80 1.03 0.87 0.77 0.73 0.74 0.67 0.60 0.57 0.47 0.57 0.67 0.49 0.53 0.78 1.05 1.00 0.86 0.81 0.89
0.02 0.02 0.03 0.03 0.03 0.04 0.04 0.05 0.04 0.06 0.08 0.09 0.12 0.16 0.19 0.23 0.27 0.33 0.36 0.46 0.45 0.48 0.64 0.82 0.87 0.98 1.07 1.11 0.94 0.83 0.83 0.79 0.71 0.86 0.85 0.64 0.55 0.64 0.85 1.01 0.98 0.89 0.83
0.08 0.07 0.09 0.10 0.10 0.10 0.10 0.11 0.13 0.16 0.18 0.20 0.23 0.27 0.30 0.39 0.49 0.57 0.59 0.68 0.62 0.68 0.82 1.01 1.09 1.34 1.25 1.16 0.93 0.89 0.85 0.83 0.73 0.72 0.73 0.68 0.52 0.53 0.64 0.82 0.96 0.96 0.89
0.19 0.23 0.28 0.34 0.36 0.39 0.41 0.41 0.40 0.44 0.49 0.49 0.51 0.53 0.55 0.64 0.83 0.99 0.95 0.90 0.96 1.01 1.11 1.25 1.30 1.33 1.13 1.04 0.96 0.98 0.90 0.79 0.65 0.63 0.61 0.57 0.50 0.43 0.49 0.63 0.80 0.89 0.87
0.42 0.54 0.64 0.74 0.82 0.90 0.96 0.98 0.94 0.94 0.90 0.82 0.81 0.87 0.96 1.02 1.16 1.39 1.28 1.19 1.38 1.29 1.39 1.59 1.55 1.46 1.30 1.20 1.06 0.93 0.84 0.71 0.52 0.51 0.48 0.50 0.54 0.40 0.42 0.58 0.66 0.67 0.80
0.81 1.00 1.06 1.16 1.35 1.52 1.57 1.51 1.51 1.52 1.42 1.25 1.21 1.22 1.16 1.19 1.34 1.58 1.43 1.43 1.49 1.61 1.62 1.44 1.70 1.63 1.45 1.38 1.14 0.92 0.70 0.57 0.47 0.43 0.39 0.33 0.38 0.37 0.32 0.38 0.46 0.54 0.74
1.42 1.63 1.78 1.93 1.97 1.83 1.74 1.83 1.89 1.76 1.70 1.61 1.59 1.56 1.47 1.49 1.57 1.80 1.61 1.49 1.60 1.73 1.65 1.58 1.67 1.66 1.47 1.43 1.09 0.76 0.63 0.47 0.41 0.40 0.36 0.32 0.28 0.26 0.28 0.36 0.53 0.53 0.56
1.97 2.18 2.38 2.58 2.70 2.59 2.60 2.66 2.63 2.36 2.25 2.02 1.81 1.60 1.52 1.49 1.61 1.86 1.65 1.70 1.67 1.62 1.59 1.61 1.78 1.74 1.53 1.55 1.26 0.83 0.53 0.36 0.30 0.34 0.39 0.38 0.30 0.32 0.43 0.53 0.58 0.61 0.68
1.82 2.25 2.63 2.58 2.50 2.43 2.62 2.87 3.04 3.02 2.65 2.13 1.90 1.76 1.57 1.50 1.58 1.70 1.69 1.58 1.61 1.63 1.59 1.60 1.73 1.55 1.34 1.44 1.39 1.23 0.74 0.50 0.38 0.37 0.52 0.55 0.49 0.50 0.51 0.52 0.59 0.66 0.74
1.52 1.85 1.97 1.76 1.78 1.75 1.84 2.08 2.23 2.49 2.39 2.11 1.85 1.71 1.62 1.57 1.53 1.57 1.60 1.58 1.55 1.55 1.54 1.63 1.61 1.49 1.32 1.30 1.41 1.51 1.18 0.82 0.57 0.35 0.35 0.44 0.53 0.54 0.50 0.52 0.51 0.54 0.61
1.05 1.03 1.03 1.10 1.18 1.27 1.39 1.63 1.91 2.18 2.15 2.06 1.99 1.75 1.56 1.41 1.34 1.33 1.33 1.35 1.38 1.38 1.43 1.36 1.34 1.42 1.42 1.32 1.37 1.41 1.36 1.25 1.05 0.57 0.34 0.38 0.49 0.53 0.52 0.49 0.49 0.54 0.58
0.88 0.90 0.90 1.00 1.14 1.25 1.36 1.50 1.69 2.04 2.02 1.85 1.72 1.56 1.48 1.39 1.31 1.24 1.23 1.20 1.19 1.19 1.22 1.22 1.35 1.36 1.37 1.33 1.29 1.28 1.36 1.35 1.24 0.96 0.57 0.49 0.50 0.48 0.52 0.54 0.56 0.64 0.74
0.76 0.86 0.91 0.93 1.01 1.07 1.13 1.21 1.27 1.43 1.50 1.41 1.35 1.30 1.23 1.14 1.10 1.12 1.11 1.08 1.07 1.11 1.18 1.17 1.16 1.17 1.19 1.21 1.16 1.13 1.18 1.16 1.14 1.15 0.90 0.78 0.72 0.65 0.67 0.68 0.69 0.73 0.71